M I D A S
Marine Information and Data Acquisition System
Tripno 1519 of the Zeeleeuw from 2008-07-15 08:24:35 to 2008-07-15 13:17:33
Back to CruiseResearch ActivitiesStationsMapUnderway DataData graphs

EquipmentUnitsComment
TimeDGPSUTC
LatitudeDGPSDM.mWGS84
LongitudeDGPSDM.mWGS84
TemperatureSBE03/SBE38deg celciusITS90
ConductivitySBE21S/mITS90
SalinitySBE21 Practical Salinity Units
ChlorophylAChelsea fluorimeterg/lCalibrated in Aceton
Missing or incorrect values are displayed as -999
Sea surface data collected by the RV Zeeleeuw from 2008-07-15 08:26:28 to 2008-07-15 13:18:59
                                                                                    Next 1000 lines
Time Latitude Longitude Temperature Conductivity Salinity ChlorophylA
2008-07-15 08:26:38 51°13.624 2°56.045 20.9347 2.298829 16.248004 -1.592577
2008-07-15 08:26:43 51°13.625 2°56.041 20.9782 2.298622 16.24672 -1.592577
2008-07-15 08:26:48 51°13.626 2°56.037 20.959 2.298622 16.246407 -1.592577
2008-07-15 08:26:53 51°13.627 2°56.031 20.9753 2.298622 16.246407 -1.592577
2008-07-15 08:26:58 51°13.629 2°56.026 20.9582 2.298829 16.248004 -1.592577
2008-07-15 08:27:03 51°13.631 2°56.019 20.9721 2.298519 16.245608 -1.592577
2008-07-15 08:27:08 51°13.633 2°56.012 20.9543 2.298829 16.248004 -1.557753
2008-07-15 08:27:13 51°13.635 2°56.004 20.9927 2.298312 16.24401 -1.592577
2008-07-15 08:27:18 51°13.638 2°55.996 20.9921 2.298312 16.24401 -1.592577
2008-07-15 08:27:23 51°13.64 2°55.987 20.9998 2.298622 16.246407 -1.592577
2008-07-15 08:27:28 51°13.643 2°55.979 21.0065 2.298209 16.243524 -1.592577
2008-07-15 08:27:33 51°13.645 2°55.97 21.0026 2.298416 16.245122 -1.592577
2008-07-15 08:27:38 51°13.648 2°55.961 21.0023 2.298209 16.243211 -1.592577
2008-07-15 08:27:43 51°13.65 2°55.951 21.0027 2.298312 16.24401 -1.592577
2008-07-15 08:27:48 51°13.653 2°55.941 21.0039 2.298106 16.242412 -1.592577
2008-07-15 08:27:53 51°13.656 2°55.932 20.9968 2.298106 16.242412 -1.592577
2008-07-15 08:27:58 51°13.659 2°55.921 21.0055 2.298002 16.241613 -1.592577
2008-07-15 08:28:03 51°13.661 2°55.911 21.0186 2.297899 16.240501 -1.592577
2008-07-15 08:28:08 51°13.664 2°55.901 21.0243 2.297796 16.239703 -1.592577
2008-07-15 08:28:13 51°13.668 2°55.892 21.0094 2.297899 16.240501 -1.592577
2008-07-15 08:28:18 51°13.671 2°55.882 21.0185 2.298002 16.2413 -1.592577
2008-07-15 08:28:23 51°13.674 2°55.872 21.0139 2.298002 16.2413 -1.592577
2008-07-15 08:28:28 51°13.678 2°55.863 21.0265 2.298519 16.245294 -1.592577
2008-07-15 08:28:33 51°13.681 2°55.854 21.0232 2.297072 16.234111 -1.592577
2008-07-15 08:28:38 51°13.684 2°55.845 21.0224 2.297692 16.238591 -1.592577
2008-07-15 08:28:43 51°13.687 2°55.837 21.0153 2.298106 16.241786 -1.592577
2008-07-15 08:28:48 51°13.691 2°55.829 21.0136 2.298106 16.241786 -1.592577
2008-07-15 08:28:53 51°13.694 2°55.82 21.0059 2.298106 16.241786 -1.592577
2008-07-15 08:28:58 51°13.697 2°55.811 20.9883 2.298312 16.243384 -1.592577
2008-07-15 08:29:03 51°13.699 2°55.802 21.0018 2.298209 16.242585 -1.592577
2008-07-15 08:29:08 51°13.702 2°55.793 21.0136 2.298002 16.240674 -1.592577
2008-07-15 08:29:13 51°13.704 2°55.785 21.0251 2.297382 16.235881 -1.592577
2008-07-15 08:29:18 51°13.707 2°55.777 21.0302 2.297589 16.237166 -1.592577
2008-07-15 08:29:23 51°13.708 2°55.769 21.0173 2.297589 16.237166 -1.592577
2008-07-15 08:29:28 51°13.71 2°55.762 21.0163 2.297692 16.237965 -1.592577
2008-07-15 08:29:33 51°13.711 2°55.755 21.0153 2.297486 16.236367 -1.592577
2008-07-15 08:29:38 51°13.713 2°55.748 21.015 2.297692 16.237965 -1.592577
2008-07-15 08:29:43 51°13.714 2°55.743 21.0177 2.297279 16.23477 -1.592577
2008-07-15 08:29:48 51°13.715 2°55.738 21.0179 2.297382 16.235568 -1.592577
2008-07-15 08:29:53 51°13.715 2°55.734 21.0255 2.297382 16.235568 -1.592577
2008-07-15 08:29:58 51°13.716 2°55.731 21.0505 2.296969 16.232373 -1.592577
2008-07-15 08:30:03 51°13.716 2°55.73 21.055 2.296556 16.229178 -1.592577
2008-07-15 08:30:08 51°13.717 2°55.731 20.4337 2.691887 19.318206 -1.557753
2008-07-15 08:30:13 51°13.718 2°55.732 19.9608 4.57111 34.781864 -1.383633
2008-07-15 08:30:18 51°13.719 2°55.735 19.4329 4.582533 34.888804 -1.244337
2008-07-15 08:30:23 51°13.721 2°55.738 19.183 4.582533 34.888804 -1.244337
2008-07-15 08:30:28 51°13.722 2°55.74 19.0028 4.330569 32.181395 0.496866
2008-07-15 08:30:33 51°13.724 2°55.743 18.8809 4.382553 31.805142 0.670986
2008-07-15 08:30:38 51°13.726 2°55.745 18.7942 4.464863 32.130521 0.775459
2008-07-15 08:30:43 51°13.727 2°55.747 18.7704 4.373308 31.348279 1.611236
2008-07-15 08:30:48 51°13.728 2°55.748 18.685 4.381511 31.593026 2.655957
2008-07-15 08:30:53 51°13.729 2°55.748 18.6448 4.381511 31.593026 2.655957
2008-07-15 08:30:58 51°13.728 2°55.747 18.6465 4.367398 31.666503 3.143494
2008-07-15 08:31:03 51°13.728 2°55.746 18.6344 4.351938 31.800006 3.422087
2008-07-15 08:31:08 51°13.726 2°55.745 18.5447 4.361075 32.03907 3.526559
2008-07-15 08:31:13 51°13.725 2°55.743 18.5438 4.351425 32.067675 3.631031
2008-07-15 08:31:18 51°13.723 2°55.742 18.5208 4.343123 32.077357 3.770327
2008-07-15 08:31:23 51°13.722 2°55.741 18.4911 4.343123 32.077357 3.770327
2008-07-15 08:31:28 51°13.722 2°55.74 18.4836 4.334406 32.076411 3.805151
2008-07-15 08:31:33 51°13.722 2°55.74 18.4643 4.324963 32.048785 3.770327
2008-07-15 08:31:38 51°13.723 2°55.74 18.4537 4.313755 31.99675 3.909623
2008-07-15 08:31:43 51°13.724 2°55.74 18.4415 4.304104 31.950235 3.909623
2008-07-15 08:31:48 51°13.726 2°55.739 18.4431 4.297774 31.923905 3.909623
2008-07-15 08:31:53 51°13.729 2°55.738 18.4287 4.297774 31.923905 3.909623
2008-07-15 08:31:58 51°13.731 2°55.737 18.4197 4.28885 31.876623 3.979271
2008-07-15 08:32:03 51°13.735 2°55.734 18.42 4.290199 31.904259 4.04892
2008-07-15 08:32:08 51°13.739 2°55.73 18.426 4.294455 31.961569 4.118568
2008-07-15 08:32:13 51°13.744 2°55.725 18.413 4.299125 32.021808 4.153392
2008-07-15 08:32:18 51°13.75 2°55.718 18.41 4.301823 32.055905 4.188216
2008-07-15 08:32:23 51°13.756 2°55.711 18.4048 4.301823 32.055905 4.188216
2008-07-15 08:32:28 51°13.762 2°55.703 18.4011 4.303484 32.080162 4.188216
2008-07-15 08:32:33 51°13.77 2°55.695 18.402 4.304418 32.09777 4.153392
2008-07-15 08:32:38 51°13.777 2°55.687 18.4023 4.30338 32.095273 4.188216
2008-07-15 08:32:43 51°13.784 2°55.679 18.4114 4.301928 32.087473 4.188216
2008-07-15 08:32:48 51°13.791 2°55.671 18.3958 4.298295 32.062744 4.118568
2008-07-15 08:32:53 51°13.799 2°55.663 18.4007 4.298295 32.062744 4.118568
2008-07-15 08:32:58 51°13.807 2°55.656 18.3798 4.293833 32.029866 4.118568
2008-07-15 08:33:03 51°13.814 2°55.648 18.3884 4.292173 32.019715 4.188216
2008-07-15 08:33:08 51°13.822 2°55.641 18.3831 4.293626 32.03489 4.188216
2008-07-15 08:33:13 51°13.83 2°55.634 18.3946 4.292277 32.024263 4.188216
2008-07-15 08:33:18 51°13.838 2°55.627 18.3781 4.287295 31.983988 4.22304
2008-07-15 08:33:23 51°13.847 2°55.62 18.3809 4.287295 31.983988 4.22304
2008-07-15 08:33:28 51°13.855 2°55.613 18.3708 4.27889 31.918865 4.292688
2008-07-15 08:33:33 51°13.863 2°55.606 18.3728 4.257098 31.742899 4.257864
2008-07-15 08:33:38 51°13.872 2°55.6 18.3706 4.266852 31.825942 4.292688
2008-07-15 08:33:43 51°13.88 2°55.593 18.3675 4.265504 31.817148 4.257864
2008-07-15 08:33:48 51°13.888 2°55.586 18.3633 4.266126 31.825996 4.22304
2008-07-15 08:33:53 51°13.897 2°55.58 18.3631 4.266126 31.825996 4.22304
2008-07-15 08:33:58 51°13.905 2°55.573 18.364 4.266645 31.83337 4.292688
2008-07-15 08:34:03 51°13.914 2°55.566 18.3603 4.269136 31.855951 4.22304
2008-07-15 08:34:08 51°13.922 2°55.56 18.3622 4.266956 31.839628 4.292688
2008-07-15 08:34:13 51°13.93 2°55.553 18.3564 4.263013 31.811051 4.292688
2008-07-15 08:34:18 51°13.938 2°55.547 18.3503 4.260419 31.791879 4.292688
2008-07-15 08:34:23 51°13.947 2°55.54 18.3444 4.260419 31.791879 4.292688
2008-07-15 08:34:28 51°13.955 2°55.534 18.35 4.2599 31.789387 4.292688
2008-07-15 08:34:33 51°13.963 2°55.528 18.3374 4.260315 31.794676 4.257864
2008-07-15 08:34:38 51°13.971 2°55.521 18.3303 4.261976 31.809731 4.257864
2008-07-15 08:34:43 51°13.979 2°55.515 18.3383 4.264051 31.827636 4.257864
2008-07-15 08:34:48 51°13.987 2°55.509 18.3295 4.2654 31.841934 4.292688
2008-07-15 08:34:53 51°13.995 2°55.503 18.3283 4.2654 31.841934 4.292688
2008-07-15 08:34:58 51°14.003 2°55.497 18.3307 4.267164 31.86092 4.257864
2008-07-15 08:35:03 51°14.011 2°55.491 18.3165 4.268721 31.876957 4.39716
2008-07-15 08:35:08 51°14.019 2°55.485 18.3119 4.271212 31.902624 4.39716
2008-07-15 08:35:13 51°14.027 2°55.479 18.3085 4.272249 31.913731 4.39716
2008-07-15 08:35:18 51°14.035 2°55.473 18.3099 4.274532 31.935228 4.466808
2008-07-15 08:35:23 51°14.042 2°55.467 18.2959 4.274532 31.935228 4.466808
2008-07-15 08:35:28 51°14.05 2°55.461 18.2963 4.274532 31.938296 4.466808
2008-07-15 08:35:33 51°14.058 2°55.455 18.2963 4.274325 31.939632 4.501632
2008-07-15 08:35:38 51°14.066 2°55.449 18.2892 4.272561 31.928594 4.57128
2008-07-15 08:35:43 51°14.074 2°55.443 18.2844 4.272976 31.936968 4.640929
2008-07-15 08:35:48 51°14.082 2°55.437 18.2749 4.272872 31.939785 4.745401
2008-07-15 08:35:53 51°14.09 2°55.431 18.2783 4.272872 31.939785 4.745401
2008-07-15 08:35:58 51°14.098 2°55.425 18.2733 4.274637 31.958811 4.815049
2008-07-15 08:36:03 51°14.107 2°55.418 18.2653 4.275882 31.974126 4.884697
2008-07-15 08:36:08 51°14.117 2°55.41 18.266 4.27775 31.993415 4.849873
2008-07-15 08:36:13 51°14.126 2°55.402 18.261 4.280863 32.023113 4.919521
2008-07-15 08:36:18 51°14.136 2°55.394 18.255 4.285741 32.068179 4.919521
2008-07-15 08:36:23 51°14.146 2°55.385 18.2572 4.285741 32.068179 4.919521
2008-07-15 08:36:28 51°14.157 2°55.376 18.2559 4.291967 32.124543 5.023993
2008-07-15 08:36:33 51°14.167 2°55.366 18.2535 4.29643 32.164945 5.058817
2008-07-15 08:36:38 51°14.177 2°55.356 18.2594 4.301722 32.212926 5.023993
2008-07-15 08:36:43 51°14.188 2°55.345 18.2567 4.306911 32.259438 5.023993
2008-07-15 08:36:48 51°14.199 2°55.333 18.2562 4.310855 32.297412 4.919521
2008-07-15 08:36:53 51°14.209 2°55.321 18.2521 4.310855 32.297412 4.919521
2008-07-15 08:36:58 51°14.219 2°55.308 18.2513 4.3121 32.310324 4.884697
2008-07-15 08:37:03 51°14.229 2°55.294 18.2425 4.311789 32.309585 4.815049
2008-07-15 08:37:08 51°14.239 2°55.28 18.2447 4.308987 32.286752 4.780225
2008-07-15 08:37:13 51°14.249 2°55.265 18.2462 4.305355 32.256351 4.780225
2008-07-15 08:37:18 51°14.259 2°55.25 18.2451 4.303694 32.243075 4.710577
2008-07-15 08:37:23 51°14.268 2°55.235 18.2362 4.303694 32.243075 4.710577
2008-07-15 08:37:28 51°14.278 2°55.219 18.2348 4.303072 32.239106 4.710577
2008-07-15 08:37:33 51°14.287 2°55.203 18.23 4.304421 32.25164 4.745401
2008-07-15 08:37:38 51°14.297 2°55.186 18.2267 4.306393 32.271873 4.745401
2008-07-15 08:37:43 51°14.306 2°55.17 18.2148 4.307949 32.286149 4.745401
2008-07-15 08:37:48 51°14.316 2°55.154 18.2006 4.30878 32.294967 4.780225
2008-07-15 08:37:53 51°14.326 2°55.138 18.1974 4.30878 32.294967 4.780225
2008-07-15 08:37:58 51°14.336 2°55.121 18.1772 4.308676 32.297209 4.849873
2008-07-15 08:38:03 51°14.346 2°55.105 18.1598 4.309091 32.303798 4.884697
2008-07-15 08:38:08 51°14.356 2°55.088 18.1498 4.311167 32.324919 4.849873
2008-07-15 08:38:13 51°14.367 2°55.071 18.1419 4.317394 32.382076 4.884697
2008-07-15 08:38:18 51°14.377 2°55.055 18.1385 4.326423 32.465261 4.884697
2008-07-15 08:38:23 51°14.389 2°55.04 18.134 4.326423 32.465261 4.884697
2008-07-15 08:38:28 51°14.402 2°55.026 18.1133 4.337009 32.562202 4.989169
2008-07-15 08:38:33 51°14.414 2°55.012 18.1135 4.348011 32.663977 5.023993
2008-07-15 08:38:38 51°14.427 2°54.999 18.1064 4.361089 32.787095 5.093641
2008-07-15 08:38:43 51°14.441 2°54.988 18.0859 4.370845 32.877991 5.128465
2008-07-15 08:38:48 51°14.456 2°54.977 18.0895 4.379357 32.957215 5.163289
2008-07-15 08:38:53 51°14.471 2°54.967 18.0743 4.379357 32.957215 5.163289
2008-07-15 08:38:58 51°14.487 2°54.957 18.0755 4.385169 33.012507 5.198113
2008-07-15 08:39:03 51°14.503 2°54.948 18.0693 4.393681 33.0944 5.198113
2008-07-15 08:39:08 51°14.519 2°54.938 18.0684 4.400324 33.159339 5.372234
2008-07-15 08:39:13 51°14.535 2°54.928 18.0604 4.408109 33.232672 5.407058
2008-07-15 08:39:18 51°14.551 2°54.918 18.0572 4.415687 33.305599 5.407058
2008-07-15 08:39:23 51°14.567 2°54.909 18.0632 4.415687 33.305599 5.407058
2008-07-15 08:39:28 51°14.583 2°54.899 18.0585 4.426379 33.404228 5.302586
2008-07-15 08:39:33 51°14.599 2°54.889 18.058 4.436345 33.494214 5.232937
2008-07-15 08:39:38 51°14.616 2°54.88 18.0645 4.445065 33.571136 5.128465
2008-07-15 08:39:43 51°14.632 2°54.87 18.0552 4.454927 33.660362 5.058817
2008-07-15 08:39:48 51°14.648 2°54.86 18.0484 4.462713 33.730781 4.989169
2008-07-15 08:39:53 51°14.664 2°54.853 18.0325 4.462713 33.730781 4.989169
2008-07-15 08:39:58 51°14.681 2°54.842 18.0359 4.4678 33.775125 4.954345
2008-07-15 08:40:03 51°14.697 2°54.832 18.0282 4.473302 33.823652 4.919521
2008-07-15 08:40:08 51°14.713 2°54.822 18.032 4.477663 33.861214 4.884697
2008-07-15 08:40:13 51°14.729 2°54.811 18.0271 4.481192 33.893067 4.919521
2008-07-15 08:40:18 51°14.745 2°54.799 18.0234 4.485449 33.932398 4.919521
2008-07-15 08:40:22 51°14.757 2°54.789 18.0215 4.485449 33.932398 4.919521
2008-07-15 08:40:27 51°14.772 2°54.776 18.0119 4.490744 33.985151 4.884697
2008-07-15 08:40:32 51°14.787 2°54.763 18.0068 4.493755 34.015941 4.919521
2008-07-15 08:40:37 51°14.801 2°54.749 17.9995 4.496351 34.041241 4.919521
2008-07-15 08:40:42 51°14.816 2°54.735 17.993 4.45119 33.662036 4.919521
2008-07-15 08:40:47 51°14.83 2°54.72 17.993 4.498635 34.066552 4.954345
2008-07-15 08:40:52 51°14.844 2°54.706 17.9852 4.498635 34.066552 4.954345
2008-07-15 08:40:57 51°14.859 2°54.692 17.9838 4.497908 34.063696 4.919521
2008-07-15 08:41:02 51°14.873 2°54.678 17.98 4.502372 34.10685 4.954345
2008-07-15 08:41:07 51°14.887 2°54.663 17.9768 4.506006 34.143641 5.023993
2008-07-15 08:41:12 51°14.902 2°54.649 17.9786 4.507045 34.157757 5.023993
2008-07-15 08:41:17 51°14.916 2°54.636 17.9813 4.508914 34.178265 5.093641
2008-07-15 08:41:22 51°14.931 2°54.621 17.9805 4.508914 34.178265 5.093641
2008-07-15 08:41:26 51°14.943 2°54.61 17.98 4.512028 34.208692 5.198113
2008-07-15 08:41:31 51°14.957 2°54.597 17.9817 4.512755 34.219517 5.232937
2008-07-15 08:41:36 51°14.972 2°54.583 17.9839 4.514209 34.235853 5.33741
2008-07-15 08:41:41 51°14.987 2°54.57 17.9833 4.518154 34.271363 5.441882
2008-07-15 08:41:46 51°15.001 2°54.556 17.9814 4.51857 34.275557 5.441882
2008-07-15 08:41:51 51°15.015 2°54.542 17.9853 4.51857 34.275557 5.441882
2008-07-15 08:41:56 51°15.03 2°54.528 17.9802 4.519297 34.281731 5.476706
2008-07-15 08:42:01 51°15.044 2°54.514 17.9781 4.519089 34.279967 5.476706
2008-07-15 08:42:06 51°15.059 2°54.501 17.9791 4.520542 34.293649 5.581178
2008-07-15 08:42:11 51°15.073 2°54.487 17.9787 4.524073 34.324312 5.581178
2008-07-15 08:42:15 51°15.085 2°54.477 17.9836 4.52345 34.319018 5.650826
2008-07-15 08:42:20 51°15.099 2°54.464 17.9817 4.52345 34.319018 5.650826
2008-07-15 08:42:25 51°15.114 2°54.453 17.9752 4.525942 34.340193 5.616002
2008-07-15 08:42:30 51°15.129 2°54.441 17.9711 4.525526 34.336664 5.68565
2008-07-15 08:42:35 51°15.144 2°54.429 17.9693 4.530406 34.379475 5.720474
2008-07-15 08:42:40 51°15.159 2°54.416 17.9643 4.530614 34.38124 5.720474
2008-07-15 08:42:45 51°15.174 2°54.404 17.9601 4.53051 34.379689 5.68565
2008-07-15 08:42:50 51°15.189 2°54.391 17.9516 4.53051 34.379689 5.68565
2008-07-15 08:42:55 51°15.204 2°54.378 17.9495 4.531444 34.387632 5.51153
2008-07-15 08:43:00 51°15.219 2°54.366 17.9485 4.530406 34.38148 5.51153
2008-07-15 08:43:05 51°15.233 2°54.353 17.9465 4.531029 34.38945 5.476706
2008-07-15 08:43:10 51°15.249 2°54.341 17.9447 4.529576 34.379767 5.441882
2008-07-15 08:43:14 51°15.261 2°54.33 17.9345 4.531548 34.399884 5.372234
2008-07-15 08:43:19 51°15.276 2°54.319 17.9369 4.531548 34.399884 5.372234
2008-07-15 08:43:25 51°15.294 2°54.304 17.9242 4.531652 34.40612 5.33741
2008-07-15 08:43:30 51°15.309 2°54.292 17.9215 4.531756 34.411019 5.302586
2008-07-15 08:43:34 51°15.321 2°54.282 17.923 4.53103 34.408854 5.267761
2008-07-15 08:43:39 51°15.337 2°54.27 17.9105 4.53051 34.407116 5.232937
2008-07-15 08:43:45 51°15.356 2°54.256 17.9074 4.529888 34.405164 5.128465
2008-07-15 08:43:49 51°15.368 2°54.247 17.9058 4.529888 34.405164 5.128465
2008-07-15 08:43:54 51°15.383 2°54.235 17.9047 4.474758 33.939945 5.128465
2008-07-15 08:43:59 51°15.398 2°54.223 17.898 4.532587 34.436175 5.023993
2008-07-15 08:44:04 51°15.413 2°54.21 17.8943 4.532587 34.440198 4.954345
2008-07-15 08:44:10 51°15.432 2°54.196 17.8855 4.533003 34.448428 4.919521
2008-07-15 08:44:14 51°15.444 2°54.186 17.8865 4.533418 34.457331 4.745401
2008-07-15 08:44:19 51°15.459 2°54.173 17.8839 4.533418 34.457331 4.745401
2008-07-15 08:44:24 51°15.473 2°54.159 17.8774 4.532588 34.454286 4.675753
2008-07-15 08:44:30 51°15.491 2°54.143 17.8742 4.53373 34.468711 4.57128
2008-07-15 08:44:34 51°15.502 2°54.132 17.8823 4.531549 34.453499 4.466808
2008-07-15 08:44:39 51°15.517 2°54.119 17.8727 4.531342 34.45643 4.362336
2008-07-15 08:44:44 51°15.532 2°54.106 17.8682 4.532173 34.467536 4.257864
2008-07-15 08:44:49 51°15.547 2°54.092 17.8678 4.532173 34.467536 4.257864
2008-07-15 08:44:54 51°15.561 2°54.079 17.8668 4.535703 34.500974 4.22304
2008-07-15 08:44:59 51°15.576 2°54.065 17.8615 4.536222 34.508089 4.118568
2008-07-15 08:45:04 51°15.591 2°54.052 17.8578 4.536637 34.51432 4.014096
2008-07-15 08:45:09 51°15.605 2°54.039 17.858 4.537053 34.519206 3.979271
2008-07-15 08:45:14 51°15.62 2°54.026 17.8598 4.537987 34.529864 3.909623
2008-07-15 08:45:19 51°15.635 2°54.013 17.8523 4.537987 34.529864 3.909623
2008-07-15 08:45:25 51°15.652 2°53.997 17.8517 4.53861 34.538542 3.805151
2008-07-15 08:45:30 51°15.667 2°53.983 17.8482 4.539233 34.545874 3.735503
2008-07-15 08:45:34 51°15.679 2°53.972 17.8471 4.539856 34.554556 3.665855
2008-07-15 08:45:39 51°15.693 2°53.959 17.8441 4.540583 34.564125 3.596207
2008-07-15 08:45:45 51°15.711 2°53.942 17.8376 4.540791 34.567919 3.491735
2008-07-15 08:45:49 51°15.722 2°53.931 17.8296 4.540791 34.567919 3.491735
2008-07-15 08:45:54 51°15.736 2°53.916 17.8285 4.541206 34.573485 3.352439
2008-07-15 08:45:59 51°15.751 2°53.902 17.8342 4.541622 34.579052 3.28279
2008-07-15 08:46:05 51°15.768 2°53.886 17.8363 4.542141 34.586855 3.213142
2008-07-15 08:46:10 51°15.783 2°53.872 17.8199 4.542452 34.591537 3.143494
2008-07-15 08:46:14 51°15.795 2°53.861 17.8171 4.542972 34.600018 3.039022
2008-07-15 08:46:19 51°15.809 2°53.847 17.8166 4.542972 34.600018 3.039022
2008-07-15 08:46:25 51°15.827 2°53.831 17.8151 4.543387 34.607616 2.93455
2008-07-15 08:46:30 51°15.841 2°53.817 17.8102 4.543595 34.612767 2.899726
2008-07-15 08:46:34 51°15.853 2°53.806 17.8123 4.543387 34.612346 2.830078
2008-07-15 08:46:39 51°15.867 2°53.792 17.8181 4.543699 34.618384 2.725606
2008-07-15 08:46:44 51°15.882 2°53.779 17.8146 4.544114 34.625311 2.76043
2008-07-15 08:46:50 51°15.9 2°53.763 17.814 4.544114 34.625311 2.76043
2008-07-15 08:46:54 51°15.911 2°53.752 17.8152 4.544218 34.628902 2.76043
2008-07-15 08:46:59 51°15.926 2°53.738 17.8152 4.544322 34.633171 2.795254
2008-07-15 08:47:04 51°15.941 2°53.725 17.8161 4.544426 34.636088 2.830078
2008-07-15 08:47:09 51°15.955 2°53.712 17.8174 4.544426 34.636764 2.899726
2008-07-15 08:47:15 51°15.973 2°53.695 17.8219 4.544633 34.639215 2.899726
2008-07-15 08:47:19 51°15.985 2°53.685 17.8206 4.544633 34.639215 2.899726
2008-07-15 08:47:24 51°16 2°53.671 17.8269 4.544737 34.640778 2.899726
2008-07-15 08:47:30 51°16.017 2°53.655 17.8292 4.545049 34.643438 2.899726
2008-07-15 08:47:34 51°16.029 2°53.645 17.8315 4.545256 34.644535 2.93455
2008-07-15 08:47:39 51°16.043 2°53.63 17.8341 4.545464 34.646308 3.10867
2008-07-15 08:47:44 51°16.058 2°53.617 17.8366 4.545568 34.645841 3.178318
2008-07-15 08:47:49 51°16.072 2°53.603 17.8355 4.545568 34.645841 3.178318
2008-07-15 08:47:54 51°16.086 2°53.588 17.8357 4.545672 34.644697 3.352439
2008-07-15 08:47:59 51°16.101 2°53.575 17.836 4.545879 34.64444 3.491735
2008-07-15 08:48:04 51°16.115 2°53.562 17.8377 4.545983 34.64262 3.561383
2008-07-15 08:48:10 51°16.133 2°53.545 17.8315 4.546087 34.6408 3.631031
2008-07-15 08:48:14 51°16.145 2°53.534 17.8323 4.546087 34.638771 3.700679
2008-07-15 08:48:19 51°16.159 2°53.521 17.8349 4.546087 34.638771 3.700679
2008-07-15 08:48:25 51°16.177 2°53.505 17.8208 4.546398 34.640753 3.735503
2008-07-15 08:48:30 51°16.192 2°53.492 17.8172 4.546398 34.640077 3.770327
2008-07-15 08:48:34 51°16.204 2°53.481 17.8105 4.546398 34.638724 3.805151
2008-07-15 08:48:39 51°16.218 2°53.467 17.8038 4.546295 34.638514 3.839975
2008-07-15 08:48:44 51°16.233 2°53.453 17.8036 4.546191 34.638304 3.805151
2008-07-15 08:48:50 51°16.25 2°53.436 17.7974 4.546191 34.638304 3.805151
2008-07-15 08:48:54 51°16.262 2°53.426 17.795 4.545983 34.637884 3.805151
2008-07-15 08:48:59 51°16.277 2°53.412 17.7921 4.545879 34.641057 3.770327
2008-07-15 08:49:04 51°16.292 2°53.4 17.7823 4.545672 34.644021 3.735503
2008-07-15 08:49:09 51°16.306 2°53.387 17.7754 4.545256 34.645212 3.665855
2008-07-15 08:49:15 51°16.325 2°53.373 17.7677 4.544945 34.64729 3.631031
2008-07-15 08:49:19 51°16.337 2°53.362 17.7612 4.544945 34.64729 3.631031
2008-07-15 08:49:24 51°16.352 2°53.35 17.7561 4.54453 34.646451 3.631031
2008-07-15 08:49:29 51°16.367 2°53.338 17.7523 4.544114 34.646966 3.561383
2008-07-15 08:49:34 51°16.382 2°53.327 17.7492 4.543803 34.649723 3.526559
2008-07-15 08:49:39 51°16.397 2°53.316 17.7406 4.543284 34.651384 3.491735
2008-07-15 08:49:44 51°16.412 2°53.304 17.741 4.542869 34.653934 3.491735
2008-07-15 08:49:49 51°16.427 2°53.293 17.7327 4.542869 34.653934 3.491735
2008-07-15 08:49:54 51°16.441 2°53.282 17.7325 4.542454 34.657162 3.456911
2008-07-15 08:49:59 51°16.455 2°53.271 17.7275 4.541935 34.658149 3.456911
2008-07-15 08:50:04 51°16.469 2°53.26 17.728 4.541312 34.658247 3.456911
2008-07-15 08:50:09 51°16.483 2°53.249 17.7204 4.540896 34.658766 3.456911
2008-07-15 08:50:14 51°16.497 2°53.238 17.7198 4.540481 34.66132 3.456911
2008-07-15 08:50:19 51°16.511 2°53.227 17.7145 4.540481 34.66132 3.456911
2008-07-15 08:50:25 51°16.527 2°53.214 17.7097 4.54017 34.662048 3.491735
2008-07-15 08:50:30 51°16.541 2°53.203 17.7045 4.539754 34.663247 3.491735
2008-07-15 08:50:34 51°16.552 2°53.194 17.701 4.539443 34.663976 3.526559
2008-07-15 08:50:39 51°16.566 2°53.184 17.6976 4.539028 34.663138 3.526559
2008-07-15 08:50:44 51°16.579 2°53.173 17.6942 4.538613 34.663658 3.561383
2008-07-15 08:50:49 51°16.593 2°53.164 17.702 4.538613 34.663658 3.561383
2008-07-15 08:50:54 51°16.606 2°53.153 17.6969 4.538405 34.665955 3.561383
2008-07-15 08:50:59 51°16.62 2°53.143 17.6845 4.538093 34.667365 3.596207
2008-07-15 08:51:04 51°16.633 2°53.133 17.6824 4.537886 34.669663 3.596207
2008-07-15 08:51:10 51°16.649 2°53.121 17.6801 4.537471 34.670185 3.596207
2008-07-15 08:51:14 51°16.659 2°53.112 17.6847 4.537159 34.670236 3.596207
2008-07-15 08:51:19 51°16.673 2°53.102 17.6757 4.537159 34.670236 3.596207
2008-07-15 08:51:24 51°16.686 2°53.093 17.679 4.536848 34.668929 3.631031
2008-07-15 08:51:30 51°16.702 2°53.081 17.6784 4.53664 34.66851 3.596207
2008-07-15 08:51:34 51°16.713 2°53.073 17.6753 4.536536 34.672379 3.596207
2008-07-15 08:51:39 51°16.726 2°53.062 17.6712 4.536225 34.673791 3.561383
2008-07-15 08:51:44 51°16.739 2°53.052 17.6741 4.536017 34.675412 3.526559
2008-07-15 08:51:49 51°16.752 2°53.042 17.6732 4.536017 34.675412 3.526559
2008-07-15 08:51:55 51°16.768 2°53.03 17.6697 4.535706 34.675465 3.422087
2008-07-15 08:51:59 51°16.778 2°53.022 17.6678 4.535498 34.675046 3.387263
2008-07-15 08:52:04 51°16.791 2°53.011 17.6682 4.535394 34.676197 3.317614
2008-07-15 08:52:09 51°16.804 2°53.001 17.6674 4.535187 34.675779 3.247966
2008-07-15 08:52:15 51°16.82 2°52.988 17.6662 4.535083 34.67625 3.143494
2008-07-15 08:52:19 51°16.831 2°52.98 17.6677 4.535083 34.67625 3.143494
2008-07-15 08:52:25 51°16.846 2°52.968 17.6641 4.534979 34.676041 3.073846
2008-07-15 08:52:30 51°16.859 2°52.957 17.6675 4.534979 34.677401 3.004198
2008-07-15 08:52:34 51°16.869 2°52.949 17.6669 4.534875 34.677872 2.899726
2008-07-15 08:52:39 51°16.882 2°52.939 17.6688 4.534875 34.679233 2.795254
2008-07-15 08:52:44 51°16.895 2°52.929 17.6715 4.534875 34.680594 2.76043
2008-07-15 08:52:49 51°16.908 2°52.919 17.6725 4.534875 34.680594 2.76043
2008-07-15 08:52:54 51°16.921 2°52.908 17.6674 4.534772 34.680385 2.690782
2008-07-15 08:52:59 51°16.934 2°52.899 17.6671 4.534772 34.680385 2.621133
2008-07-15 08:53:05 51°16.95 2°52.887 17.6706 4.534772 34.680385 2.586309
2008-07-15 08:53:10 51°16.963 2°52.876 17.6697 4.534875 34.681274 2.551485
2008-07-15 08:53:14 51°16.974 2°52.868 17.6715 4.534875 34.679913 2.481837
2008-07-15 08:53:19 51°16.987 2°52.858 17.6721 4.534875 34.679913 2.481837
2008-07-15 08:53:25 51°17.003 2°52.846 17.6727 4.534875 34.679233 2.412189
2008-07-15 08:53:30 51°17.016 2°52.836 17.6695 4.534979 34.680123 2.377365
2008-07-15 08:53:34 51°17.026 2°52.827 17.6713 4.535083 34.681693 2.342541
2008-07-15 08:53:39 51°17.04 2°52.817 17.6663 4.535083 34.681693 2.307717
2008-07-15 08:53:44 51°17.053 2°52.807 17.669 4.535083 34.681012 2.272893
2008-07-15 08:53:50 51°17.069 2°52.795 17.6737 4.535083 34.681012 2.272893
2008-07-15 08:53:55 51°17.082 2°52.785 17.6718 4.535083 34.680332 2.272893
2008-07-15 08:53:59 51°17.093 2°52.777 17.6728 4.535187 34.681221 2.238069
2008-07-15 08:54:05 51°17.109 2°52.765 17.6734 4.535187 34.681902 2.203245
2008-07-15 08:54:10 51°17.122 2°52.754 17.671 4.535187 34.681902 2.168421
2008-07-15 08:54:14 51°17.132 2°52.746 17.6705 4.535187 34.682582 2.168421
2008-07-15 08:54:19 51°17.145 2°52.735 17.6721 4.535187 34.682582 2.168421
2008-07-15 08:54:25 51°17.161 2°52.722 17.6713 4.535187 34.681221 2.133597
2008-07-15 08:54:30 51°17.174 2°52.712 17.6721 4.535187 34.681221 2.133597
2008-07-15 08:54:34 51°17.184 2°52.704 17.6707 4.535187 34.681221 2.098773
2008-07-15 08:54:39 51°17.197 2°52.693 17.6675 4.535187 34.681221 2.098773
2008-07-15 08:54:45 51°17.213 2°52.681 17.6691 4.535187 34.681221 2.063949
2008-07-15 08:54:50 51°17.226 2°52.67 17.6679 4.535187 34.681221 2.063949
2008-07-15 08:54:54 51°17.236 2°52.662 17.6676 4.535187 34.680541 2.063949
2008-07-15 08:54:59 51°17.249 2°52.652 17.6668 4.535187 34.680541 2.063949
2008-07-15 08:55:05 51°17.265 2°52.64 17.6705 4.535187 34.681221 2.029124
2008-07-15 08:55:10 51°17.278 2°52.629 17.6663 4.535187 34.681902 2.063949
2008-07-15 08:55:14 51°17.289 2°52.621 17.6658 4.535083 34.681693 2.029124
2008-07-15 08:55:19 51°17.301 2°52.61 17.6693 4.535083 34.681693 2.029124
2008-07-15 08:55:25 51°17.317 2°52.597 17.664 4.528749 34.628113 2.029124
2008-07-15 08:55:30 51°17.33 2°52.586 17.6642 4.534979 34.682164 1.9943
2008-07-15 08:55:34 51°17.34 2°52.577 17.6642 4.534875 34.681955 2.029124
2008-07-15 08:55:39 51°17.353 2°52.566 17.6659 4.534772 34.681065 1.9943
2008-07-15 08:55:44 51°17.365 2°52.554 17.6603 4.534772 34.681065 1.9943
2008-07-15 08:55:50 51°17.38 2°52.541 17.6592 4.534772 34.681065 1.9943
2008-07-15 08:55:55 51°17.393 2°52.529 17.6587 4.534668 34.680856 1.9943
2008-07-15 08:55:59 51°17.403 2°52.52 17.6604 4.534668 34.681537 1.9943
2008-07-15 08:56:04 51°17.416 2°52.509 17.6558 4.534564 34.681328 1.9943
2008-07-15 08:56:10 51°17.432 2°52.496 17.6551 4.534564 34.681328 1.959476
2008-07-15 08:56:14 51°17.442 2°52.487 17.6563 4.53446 34.681118 1.9943
2008-07-15 08:56:19 51°17.455 2°52.476 17.6581 4.53446 34.681118 1.9943
2008-07-15 08:56:25 51°17.47 2°52.463 17.6603 4.534356 34.682271 1.924652
2008-07-15 08:56:30 51°17.483 2°52.452 17.6582 4.534253 34.682062 1.924652
2008-07-15 08:56:34 51°17.493 2°52.443 17.6572 4.534149 34.682533 1.889828
2008-07-15 08:56:39 51°17.505 2°52.432 17.657 4.534045 34.682324 1.924652
2008-07-15 08:56:44 51°17.518 2°52.421 17.6569 4.533941 34.682115 1.889828
2008-07-15 08:56:49 51°17.531 2°52.41 17.6562 4.533941 34.682115 1.889828
2008-07-15 08:56:54 51°17.543 2°52.398 17.655 4.533837 34.681225 1.889828
2008-07-15 08:56:59 51°17.556 2°52.387 17.6531 4.533733 34.680335 1.889828
2008-07-15 08:57:05 51°17.571 2°52.373 17.6527 4.533733 34.680335 1.855004
2008-07-15 08:57:10 51°17.583 2°52.362 17.6525 4.53363 34.679445 1.855004
2008-07-15 08:57:14 51°17.594 2°52.353 17.6525 4.53363 34.680126 1.855004
2008-07-15 08:57:19 51°17.607 2°52.341 17.654 4.53363 34.680126 1.855004
2008-07-15 08:57:25 51°17.622 2°52.327 17.6533 4.533526 34.679917 1.82018
2008-07-15 08:57:29 51°17.632 2°52.318 17.6519 4.533422 34.679708 1.82018
2008-07-15 08:57:34 51°17.645 2°52.306 17.6527 4.533318 34.679499 1.82018
2008-07-15 08:57:39 51°17.657 2°52.295 17.6524 4.533214 34.67929 1.785356
2008-07-15 08:57:44 51°17.67 2°52.283 17.6542 4.533111 34.67908 1.750532
2008-07-15 08:57:50 51°17.685 2°52.269 17.6567 4.533111 34.67908 1.750532
2008-07-15 08:57:55 51°17.698 2°52.258 17.6526 4.533007 34.678191 1.750532
2008-07-15 08:57:59 51°17.708 2°52.249 17.6588 4.532903 34.677301 1.715708
2008-07-15 08:58:04 51°17.721 2°52.238 17.6524 4.532799 34.676411 1.715708
2008-07-15 08:58:10 51°17.736 2°52.224 17.6541 4.532695 34.675521 1.715708
2008-07-15 08:58:14 51°17.747 2°52.215 17.65 4.532695 34.67484 1.715708
2008-07-15 08:58:19 51°17.759 2°52.203 17.6486 4.532695 34.67484 1.715708
2008-07-15 08:58:25 51°17.774 2°52.189 17.6477 4.532591 34.67395 1.680884
2008-07-15 08:58:29 51°17.784 2°52.18 17.6481 4.532591 34.67395 1.680884
2008-07-15 08:58:35 51°17.799 2°52.166 17.6482 4.532384 34.672851 1.680884
2008-07-15 08:58:39 51°17.809 2°52.157 17.6471 4.531968 34.669292 1.680884
2008-07-15 08:58:44 51°17.822 2°52.145 17.6466 4.532072 34.670862 1.680884
2008-07-15 08:58:49 51°17.835 2°52.134 17.647 4.532072 34.670862 1.680884
2008-07-15 08:58:55 51°17.85 2°52.12 17.646 4.531346 34.666675 1.680884
2008-07-15 08:58:59 51°17.86 2°52.112 17.6465 4.531242 34.666465 1.680884
2008-07-15 08:59:05 51°17.875 2°52.098 17.6458 4.531657 34.670706 1.680884
2008-07-15 08:59:10 51°17.888 2°52.088 17.644 4.53093 34.664476 1.680884
2008-07-15 08:59:14 51°17.898 2°52.079 17.6423 4.531242 34.667827 1.680884
2008-07-15 08:59:19 51°17.91 2°52.067 17.6429 4.531242 34.667827 1.680884
2008-07-15 08:59:25 51°17.925 2°52.055 17.6402 4.531138 34.667617 1.680884
2008-07-15 08:59:29 51°17.935 2°52.046 17.6398 4.520236 34.57419 1.680884
2008-07-15 08:59:34 51°17.948 2°52.035 17.6408 4.530619 34.663167 1.715708
2008-07-15 08:59:39 51°17.961 2°52.023 17.6414 4.53093 34.667199 1.715708
2008-07-15 08:59:45 51°17.976 2°52.01 17.6396 4.531138 34.669659 1.750532
2008-07-15 08:59:50 51°17.988 2°51.998 17.6418 4.531138 34.669659 1.750532
2008-07-15 08:59:55 51°18.001 2°51.987 17.6419 4.530826 34.668351 1.715708
2008-07-15 08:59:59 51°18.011 2°51.978 17.6448 4.530723 34.668141 1.715708
2008-07-15 09:00:05 51°18.026 2°51.964 17.6371 4.531034 34.671492 1.715708
2008-07-15 09:00:10 51°18.038 2°51.953 17.6367 4.5301 34.663482 1.715708
2008-07-15 09:00:14 51°18.048 2°51.944 17.6353 4.530826 34.670393 1.715708
2008-07-15 09:00:19 51°18.061 2°51.933 17.6333 4.530826 34.670393 1.715708
2008-07-15 09:00:24 51°18.074 2°51.922 17.6346 4.53093 34.670602 1.715708
2008-07-15 09:00:30 51°18.089 2°51.909 17.6362 4.530619 34.667251 1.750532
2008-07-15 09:00:35 51°18.101 2°51.898 17.6337 4.53093 34.670602 1.715708
2008-07-15 09:00:39 51°18.111 2°51.889 17.6318 4.530827 34.671074 1.715708
2008-07-15 09:00:44 51°18.124 2°51.878 17.632 4.530827 34.672436 1.750532
2008-07-15 09:00:49 51°18.137 2°51.867 17.6316 4.530827 34.672436 1.750532
2008-07-15 09:00:55 51°18.152 2°51.853 17.6352 4.530619 34.672017 1.750532
2008-07-15 09:00:59 51°18.162 2°51.844 17.6317 4.530515 34.671808 1.750532
2008-07-15 09:01:05 51°18.177 2°51.831 17.6336 4.528335 34.653795 1.715708
2008-07-15 09:01:10 51°18.189 2°51.82 17.6306 4.529684 34.666048 1.715708
2008-07-15 09:01:14 51°18.199 2°51.811 17.6328 4.530411 34.672961 1.715708
2008-07-15 09:01:19 51°18.212 2°51.8 17.6319 4.530411 34.672961 1.715708
2008-07-15 09:01:25 51°18.228 2°51.787 17.6326 4.530307 34.672071 1.715708
2008-07-15 09:01:29 51°18.238 2°51.777 17.6331 4.530307 34.672071 1.680884
2008-07-15 09:01:34 51°18.251 2°51.766 17.6302 4.530204 34.67118 1.680884
2008-07-15 09:01:39 51°18.263 2°51.755 17.6325 4.5301 34.670971 1.680884
2008-07-15 09:01:45 51°18.279 2°51.742 17.6313 4.530204 34.671861 1.64606
2008-07-15 09:01:50 51°18.291 2°51.731 17.6364 4.530204 34.671861 1.64606
2008-07-15 09:01:54 51°18.301 2°51.722 17.636 4.5301 34.670971 1.64606
2008-07-15 09:01:59 51°18.314 2°51.712 17.6315 4.5301 34.670971 1.611236
2008-07-15 09:02:05 51°18.329 2°51.698 17.6327 4.5301 34.671652 1.576412
2008-07-15 09:02:10 51°18.342 2°51.687 17.6328 4.529996 34.670081 1.576412
2008-07-15 09:02:14 51°18.352 2°51.678 17.6302 4.529892 34.669872 1.541588
2008-07-15 09:02:19 51°18.365 2°51.668 17.6284 4.529892 34.669872 1.541588
2008-07-15 09:02:25 51°18.38 2°51.654 17.6322 4.529892 34.66851 1.541588
2008-07-15 09:02:30 51°18.393 2°51.644 17.6303 4.529892 34.66851 1.506764
2008-07-15 09:02:34 51°18.403 2°51.635 17.6323 4.529996 34.670081 1.47194
2008-07-15 09:02:39 51°18.415 2°51.624 17.6307 4.529996 34.670081 1.437116
2008-07-15 09:02:44 51°18.428 2°51.613 17.6321 4.529996 34.670762 1.437116
2008-07-15 09:02:50 51°18.442 2°51.6 17.6311 4.529996 34.670762 1.437116
2008-07-15 09:02:55 51°18.455 2°51.589 17.6321 4.529892 34.671234 1.402292
2008-07-15 09:02:59 51°18.465 2°51.58 17.6303 4.529788 34.670343 1.402292
2008-07-15 09:03:05 51°18.48 2°51.568 17.6294 4.529788 34.669662 1.367467
2008-07-15 09:03:10 51°18.493 2°51.557 17.6281 4.529892 34.670553 1.367467
2008-07-15 09:03:14 51°18.503 2°51.548 17.6295 4.529892 34.670553 1.367467
2008-07-15 09:03:19 51°18.516 2°51.537 17.6301 4.529892 34.670553 1.367467
2008-07-15 09:03:24 51°18.528 2°51.526 17.632 4.529788 34.669662 1.367467
2008-07-15 09:03:29 51°18.54 2°51.515 17.6292 4.529788 34.669662 1.332643
2008-07-15 09:03:34 51°18.552 2°51.504 17.6281 4.529788 34.670343 1.332643
2008-07-15 09:03:39 51°18.565 2°51.492 17.6277 4.529788 34.671024 1.332643
2008-07-15 09:03:45 51°18.58 2°51.479 17.6289 4.529788 34.671024 1.297819
2008-07-15 09:03:50 51°18.592 2°51.467 17.627 4.529788 34.671024 1.297819
2008-07-15 09:03:54 51°18.603 2°51.458 17.6259 4.529788 34.670343 1.297819
2008-07-15 09:03:59 51°18.615 2°51.447 17.629 4.529685 34.670134 1.297819
2008-07-15 09:04:05 51°18.63 2°51.434 17.6271 4.529788 34.671024 1.297819
2008-07-15 09:04:10 51°18.643 2°51.423 17.6254 4.529685 34.671496 1.262995
2008-07-15 09:04:14 51°18.653 2°51.414 17.6235 4.529581 34.670606 1.262995
2008-07-15 09:04:19 51°18.666 2°51.402 17.6257 4.529581 34.670606 1.262995
2008-07-15 09:04:25 51°18.681 2°51.39 17.6243 4.529581 34.670606 1.228171
2008-07-15 09:04:30 51°18.693 2°51.379 17.6248 4.529581 34.671287 1.228171
2008-07-15 09:04:34 51°18.703 2°51.37 17.6224 4.529581 34.671287 1.228171
2008-07-15 09:04:39 51°18.716 2°51.358 17.6234 4.529581 34.671287 1.158523
2008-07-15 09:04:44 51°18.728 2°51.347 17.6215 4.529581 34.671968 1.193347
2008-07-15 09:04:50 51°18.743 2°51.333 17.6235 4.529581 34.671968 1.193347
2008-07-15 09:04:55 51°18.756 2°51.322 17.6219 4.529477 34.67244 1.158523
2008-07-15 09:04:59 51°18.766 2°51.313 17.6208 4.529477 34.67244 1.158523
2008-07-15 09:05:05 51°18.782 2°51.299 17.6219 4.529477 34.67244 1.123699
2008-07-15 09:05:10 51°18.794 2°51.287 17.6223 4.529581 34.674012 1.123699
2008-07-15 09:05:14 51°18.804 2°51.278 17.6207 4.529477 34.673803 1.088875
2008-07-15 09:05:19 51°18.817 2°51.267 17.6204 4.529477 34.673803 1.088875
2008-07-15 09:05:24 51°18.83 2°51.255 17.6217 4.529477 34.674484 1.054051
2008-07-15 09:05:29 51°18.843 2°51.244 17.6181 4.529477 34.674484 1.019227
2008-07-15 09:05:35 51°18.858 2°51.231 17.6198 4.529581 34.676056 1.019227
2008-07-15 09:05:39 51°18.868 2°51.221 17.6223 4.529581 34.676056 0.949579
2008-07-15 09:05:45 51°18.884 2°51.208 17.623 4.529685 34.676946 0.914755
2008-07-15 09:05:50 51°18.896 2°51.197 17.6168 4.529685 34.676946 0.914755
2008-07-15 09:05:54 51°18.906 2°51.188 17.6155 4.529685 34.676946 0.914755
2008-07-15 09:05:59 51°18.919 2°51.177 17.6158 4.529788 34.677837 0.879931
2008-07-15 09:06:05 51°18.934 2°51.164 17.614 4.529892 34.68009 0.879931
2008-07-15 09:06:10 51°18.947 2°51.154 17.6136 4.529892 34.68009 0.845107
2008-07-15 09:06:14 51°18.956 2°51.146 17.6111 4.529996 34.68098 0.810283
2008-07-15 09:06:19 51°18.968 2°51.136 17.6117 4.529996 34.68098 0.810283
2008-07-15 09:06:25 51°18.983 2°51.124 17.6105 4.5301 34.683234 0.810283
2008-07-15 09:06:30 51°18.994 2°51.114 17.6096 4.530204 34.684806 0.810283
2008-07-15 09:06:34 51°19.003 2°51.106 17.6086 4.530204 34.685488 0.740634
2008-07-15 09:06:39 51°19.014 2°51.097 17.6033 4.530308 34.687742 0.740634
2008-07-15 09:06:45 51°19.027 2°51.087 17.6007 4.530308 34.688423 0.70581
2008-07-15 09:06:50 51°19.038 2°51.078 17.5991 4.530308 34.688423 0.70581
2008-07-15 09:06:54 51°19.047 2°51.072 17.5956 4.530412 34.690678 0.70581
2008-07-15 09:06:59 51°19.058 2°51.063 17.5941 4.530412 34.69136 0.670986
2008-07-15 09:07:05 51°19.071 2°51.053 17.5951 4.530515 34.692932 0.670986
2008-07-15 09:07:10 51°19.081 2°51.044 17.59 4.530515 34.694978 0.636162
2008-07-15 09:07:14 51°19.089 2°51.037 17.5867 4.530516 34.697706 0.601338
2008-07-15 09:07:19 51°19.1 2°51.028 17.5858 4.530516 34.697706 0.601338
2008-07-15 09:07:24 51°19.11 2°51.019 17.5817 4.530516 34.699752 0.566514
2008-07-15 09:07:29 51°19.12 2°51.011 17.5803 4.530412 34.700908 0.566514
2008-07-15 09:07:35 51°19.132 2°51 17.5772 4.52792 34.680889 0.566514
2008-07-15 09:07:39 51°19.14 2°50.992 17.578 4.530308 34.703429 0.53169
2008-07-15 09:07:45 51°19.151 2°50.98 17.573 4.530308 34.706841 0.53169
2008-07-15 09:07:50 51°19.159 2°50.968 17.5731 4.530308 34.706841 0.53169
2008-07-15 09:07:55 51°19.167 2°50.957 17.5661 4.530308 34.709571 0.53169
2008-07-15 09:07:59 51°19.173 2°50.947 17.5631 4.530204 34.711411 0.496866
2008-07-15 09:08:05 51°19.182 2°50.931 17.5609 4.530101 34.71325 0.496866
2008-07-15 09:08:10 51°19.188 2°50.918 17.558 4.529997 34.714408 0.462042
2008-07-15 09:08:14 51°19.193 2°50.907 17.5602 4.529893 34.715565 0.462042
2008-07-15 09:08:19 51°19.199 2°50.892 17.56 4.529893 34.715565 0.462042
2008-07-15 09:08:25 51°19.205 2°50.875 17.5564 4.529893 34.717614 0.462042
2008-07-15 09:08:30 51°19.209 2°50.859 17.5546 4.529789 34.720138 0.427218
2008-07-15 09:08:34 51°19.213 2°50.847 17.5527 4.529685 34.72198 0.462042
2008-07-15 09:08:39 51°19.218 2°50.831 17.55 4.529478 34.72293 0.427218
2008-07-15 09:08:45 51°19.222 2°50.811 17.5493 4.529478 34.72498 0.427218
2008-07-15 09:08:50 51°19.227 2°50.794 17.5482 4.529478 34.72498 0.427218
2008-07-15 09:08:54 51°19.23 2°50.781 17.5489 4.529374 34.725455 0.427218
2008-07-15 09:08:59 51°19.234 2°50.764 17.549 4.52927 34.72593 0.427218
2008-07-15 09:09:05 51°19.239 2°50.744 17.5487 4.518991 34.6397 0.427218
2008-07-15 09:09:10 51°19.243 2°50.727 17.5473 4.467911 34.202858 0.427218
2008-07-15 09:09:14 51°19.246 2°50.714 17.5444 4.529374 34.731608 0.427218
2008-07-15 09:09:19 51°19.25 2°50.697 17.5463 4.529374 34.731608 0.427218
2008-07-15 09:09:24 51°19.253 2°50.68 17.5453 4.52927 34.7314 0.427218
2008-07-15 09:09:30 51°19.258 2°50.659 17.5437 4.529167 34.731875 0.427218
2008-07-15 09:09:35 51°19.262 2°50.642 17.5425 4.529167 34.731875 0.427218
2008-07-15 09:09:39 51°19.266 2°50.628 17.5437 4.529167 34.733243 0.427218
2008-07-15 09:09:45 51°19.27 2°50.607 17.5442 4.529167 34.734611 0.427218
2008-07-15 09:09:50 51°19.275 2°50.59 17.5435 4.529167 34.734611 0.427218
2008-07-15 09:09:54 51°19.278 2°50.576 17.5382 4.529063 34.734403 0.427218
2008-07-15 09:09:59 51°19.283 2°50.558 17.5389 4.529063 34.735087 0.427218
2008-07-15 09:10:05 51°19.288 2°50.537 17.5435 4.528959 34.734879 0.427218
2008-07-15 09:10:10 51°19.293 2°50.52 17.5378 4.528855 34.73467 0.427218
2008-07-15 09:10:15 51°19.297 2°50.502 17.5372 4.528855 34.73467 0.427218
2008-07-15 09:10:19 51°19.301 2°50.488 17.5361 4.528855 34.73467 0.427218
2008-07-15 09:10:24 51°19.305 2°50.471 17.5348 4.528855 34.735354 0.392394
2008-07-15 09:10:30 51°19.311 2°50.45 17.5331 4.528751 34.735146 0.392394
2008-07-15 09:10:34 51°19.315 2°50.436 17.5356 4.528648 34.735622 0.392394
2008-07-15 09:10:39 51°19.319 2°50.418 17.5374 4.528648 34.736306 0.35757
2008-07-15 09:10:45 51°19.324 2°50.397 17.5351 4.528544 34.736098 0.392394
2008-07-15 09:10:50 51°19.328 2°50.379 17.5374 4.528544 34.736098 0.392394
2008-07-15 09:10:54 51°19.332 2°50.365 17.5368 4.528544 34.737467 0.35757
2008-07-15 09:10:59 51°19.336 2°50.348 17.5334 4.52844 34.737258 0.322746
2008-07-15 09:11:05 51°19.342 2°50.327 17.5338 4.528232 34.736158 0.322746
2008-07-15 09:11:10 51°19.347 2°50.31 17.5366 4.528232 34.736842 0.322746
2008-07-15 09:11:14 51°19.351 2°50.296 17.5388 4.528232 34.736158 0.322746
2008-07-15 09:11:19 51°19.355 2°50.279 17.5386 4.528232 34.736158 0.322746
2008-07-15 09:11:24 51°19.36 2°50.262 17.535 4.528128 34.735266 0.322746
2008-07-15 09:11:30 51°19.366 2°50.242 17.5358 4.528128 34.735266 0.287922
2008-07-15 09:11:35 51°19.371 2°50.225 17.5341 4.528025 34.735058 0.287922
2008-07-15 09:11:39 51°19.374 2°50.212 17.5333 4.528025 34.735058 0.287922
2008-07-15 09:11:44 51°19.379 2°50.195 17.5342 4.528025 34.733689 0.287922
2008-07-15 09:11:50 51°19.384 2°50.175 17.5344 4.528025 34.733689 0.287922
2008-07-15 09:11:54 51°19.388 2°50.162 17.5309 4.527921 34.732797 0.287922
2008-07-15 09:11:59 51°19.393 2°50.145 17.532 4.527921 34.732797 0.287922
2008-07-15 09:12:05 51°19.398 2°50.125 17.532 4.527921 34.734165 0.253098
2008-07-15 09:12:10 51°19.403 2°50.108 17.5281 4.527817 34.733957 0.253098
2008-07-15 09:12:15 51°19.408 2°50.092 17.5308 4.527713 34.733065 0.287922
2008-07-15 09:12:19 51°19.412 2°50.079 17.531 4.527713 34.733065 0.287922
2008-07-15 09:12:24 51°19.416 2°50.062 17.5239 4.527609 34.732172 0.253098
2008-07-15 09:12:29 51°19.421 2°50.045 17.5263 4.527506 34.731964 0.253098
2008-07-15 09:12:35 51°19.426 2°50.025 17.5226 4.527402 34.731756 0.253098
2008-07-15 09:12:39 51°19.43 2°50.012 17.5199 4.527298 34.731548 0.253098
2008-07-15 09:12:45 51°19.435 2°49.992 17.5175 4.52709 34.731131 0.287922
2008-07-15 09:12:50 51°19.44 2°49.975 17.5141 4.52709 34.731131 0.287922
2008-07-15 09:12:54 51°19.444 2°49.961 17.5125 4.526986 34.730923 0.287922
2008-07-15 09:12:59 51°19.449 2°49.944 17.5104 4.526779 34.729823 0.322746
2008-07-15 09:13:05 51°19.455 2°49.923 17.5104 4.526571 34.73009 0.322746
2008-07-15 09:13:10 51°19.459 2°49.906 17.5086 4.52626 34.729466 0.287922
2008-07-15 09:13:14 51°19.463 2°49.892 17.5068 4.526052 34.729734 0.322746
2008-07-15 09:13:19 51°19.468 2°49.875 17.5031 4.526052 34.729734 0.322746
2008-07-15 09:13:25 51°19.473 2°49.854 17.5045 4.525741 34.730478 0.322746
2008-07-15 09:13:30 51°19.478 2°49.836 17.5006 4.525325 34.728961 0.35757
2008-07-15 09:13:35 51°19.482 2°49.818 17.4963 4.525118 34.728544 0.35757
2008-07-15 09:13:39 51°19.486 2°49.804 17.4975 4.52491 34.728128 0.392394
2008-07-15 09:13:45 51°19.491 2°49.783 17.4937 4.524702 34.727711 0.392394
2008-07-15 09:13:50 51°19.495 2°49.766 17.4912 4.524702 34.727711 0.392394
2008-07-15 09:13:54 51°19.499 2°49.752 17.4894 4.524391 34.727087 0.427218
2008-07-15 09:13:59 51°19.503 2°49.734 17.4826 4.524183 34.727355 0.427218
2008-07-15 09:14:05 51°19.508 2°49.713 17.4807 4.523976 34.727623 0.462042
2008-07-15 09:14:09 51°19.511 2°49.698 17.4806 4.523768 34.727206 0.462042
2008-07-15 09:14:15 51°19.516 2°49.678 17.4781 4.520861 34.704258 0.462042
2008-07-15 09:14:19 51°19.519 2°49.664 17.473 4.520861 34.704258 0.462042
2008-07-15 09:14:24 51°19.523 2°49.647 17.4692 4.523145 34.725957 0.496866
2008-07-15 09:14:29 51°19.527 2°49.629 17.4714 4.522938 34.727595 0.53169
2008-07-15 09:14:35 51°19.532 2°49.608 17.4641 4.522626 34.727655 0.53169
2008-07-15 09:14:39 51°19.535 2°49.595 17.4626 4.522211 34.727508 0.566514
2008-07-15 09:14:45 51°19.54 2°49.574 17.458 4.5219 34.727568 0.601338
2008-07-15 09:14:50 51°19.544 2°49.556 17.4577 4.5219 34.727568 0.601338
2008-07-15 09:14:55 51°19.549 2°49.539 17.4544 4.521588 34.727628 0.601338
2008-07-15 09:14:59 51°19.552 2°49.525 17.4525 4.521173 34.727481 0.636162
2008-07-15 09:15:05 51°19.557 2°49.504 17.45 4.520861 34.727542 0.670986
2008-07-15 09:15:10 51°19.561 2°49.487 17.4455 4.52055 34.726917 0.670986
2008-07-15 09:15:14 51°19.564 2°49.474 17.4435 4.520135 34.726084 0.70581
2008-07-15 09:15:19 51°19.569 2°49.456 17.4415 4.520135 34.726084 0.70581
2008-07-15 09:15:25 51°19.574 2°49.436 17.4342 4.519927 34.727039 0.740634
2008-07-15 09:15:30 51°19.578 2°49.419 17.4346 4.519512 34.726206 0.740634
2008-07-15 09:15:35 51°19.582 2°49.401 17.4303 4.519304 34.726475 0.775459
2008-07-15 09:15:39 51°19.585 2°49.388 17.4305 4.518993 34.726536 0.810283
2008-07-15 09:15:45 51°19.59 2°49.367 17.4268 4.518578 34.725703 0.845107
2008-07-15 09:15:50 51°19.594 2°49.35 17.4197 4.518578 34.725703 0.845107
2008-07-15 09:15:54 51°19.597 2°49.336 17.4197 4.518162 34.725556 0.879931
2008-07-15 09:15:59 51°19.601 2°49.318 17.4151 4.517747 34.725409 0.914755
2008-07-15 09:16:05 51°19.605 2°49.297 17.412 4.517332 34.725262 0.949579
2008-07-15 09:16:10 51°19.609 2°49.279 17.4083 4.51702 34.725323 0.949579
2008-07-15 09:16:14 51°19.611 2°49.265 17.4053 4.516709 34.724699 0.984403
2008-07-15 09:16:19 51°19.615 2°49.246 17.4033 4.516709 34.724699 0.984403
2008-07-15 09:16:24 51°19.619 2°49.229 17.3998 4.516294 34.725238 1.019227
2008-07-15 09:16:30 51°19.623 2°49.207 17.3959 4.515878 34.725092 1.088875
2008-07-15 09:16:35 51°19.626 2°49.189 17.3945 4.515463 34.724945 1.088875
2008-07-15 09:16:39 51°19.629 2°49.175 17.3894 4.515048 34.724112 1.088875
2008-07-15 09:16:45 51°19.634 2°49.153 17.3884 4.51484 34.725755 1.123699
2008-07-15 09:16:50 51°19.638 2°49.136 17.387 4.51484 34.725755 1.123699
2008-07-15 09:16:54 51°19.641 2°49.122 17.3834 4.514425 34.724922 1.123699
2008-07-15 09:16:59 51°19.644 2°49.105 17.3826 4.514217 34.725193 1.158523
2008-07-15 09:17:05 51°19.648 2°49.084 17.3789 4.513698 34.724838 1.193347
2008-07-15 09:17:09 51°19.651 2°49.07 17.3773 4.513283 34.724006 1.228171
2008-07-15 09:17:15 51°19.656 2°49.049 17.374 4.512868 34.72386 1.262995
2008-07-15 09:17:19 51°19.659 2°49.035 17.3735 4.512868 34.72386 1.262995
2008-07-15 09:17:25 51°19.663 2°49.014 17.3716 4.512556 34.723235 1.262995
2008-07-15 09:17:30 51°19.667 2°48.996 17.3668 4.512245 34.723984 1.262995
2008-07-15 09:17:34 51°19.669 2°48.982 17.3708 4.511934 34.722673 1.297819
2008-07-15 09:17:39 51°19.673 2°48.964 17.3668 4.51183 34.723838 1.332643
2008-07-15 09:17:45 51°19.678 2°48.943 17.3632 4.511518 34.723901 1.332643
2008-07-15 09:17:50 51°19.681 2°48.926 17.3614 4.511518 34.723901 1.332643
2008-07-15 09:17:54 51°19.685 2°48.911 17.3627 4.511207 34.723276 1.367467
2008-07-15 09:17:59 51°19.688 2°48.894 17.3593 4.511103 34.724442 1.402292
2008-07-15 09:18:05 51°19.693 2°48.872 17.3569 4.510792 34.724505 1.402292
2008-07-15 09:18:10 51°19.696 2°48.854 17.3544 4.510584 34.724776 1.402292
2008-07-15 09:18:14 51°19.699 2°48.84 17.3521 4.510376 34.72436 1.437116
2008-07-15 09:18:19 51°19.703 2°48.822 17.3502 4.510376 34.72436 1.437116
2008-07-15 09:18:24 51°19.707 2°48.804 17.3519 4.510273 34.725526 1.437116
2008-07-15 09:18:30 51°19.711 2°48.783 17.353 4.510065 34.72511 1.437116
2008-07-15 09:18:35 51°19.715 2°48.765 17.3535 4.509961 34.726277 1.47194
2008-07-15 09:18:39 51°19.718 2°48.751 17.3543 4.509754 34.726548 1.506764
2008-07-15 09:18:45 51°19.722 2°48.73 17.3487 4.50965 34.727715 1.506764
2008-07-15 09:18:50 51°19.726 2°48.713 17.3466 4.50965 34.727715 1.506764
2008-07-15 09:18:54 51°19.729 2°48.699 17.3462 4.509546 34.728194 1.506764
2008-07-15 09:18:59 51°19.733 2°48.681 17.3441 4.509442 34.728674 1.506764
2008-07-15 09:19:05 51°19.737 2°48.66 17.3447 4.509442 34.727986 1.506764
2008-07-15 09:19:09 51°19.74 2°48.645 17.3451 4.509442 34.728674 1.541588
2008-07-15 09:19:15 51°19.744 2°48.624 17.345 4.509442 34.730049 1.541588
2008-07-15 09:19:19 51°19.747 2°48.61 17.3411 4.509442 34.730049 1.541588
2008-07-15 09:19:25 51°19.752 2°48.588 17.3402 4.509338 34.730529 1.576412
2008-07-15 09:19:30 51°19.755 2°48.57 17.3387 4.509338 34.731905 1.576412
2008-07-15 09:19:34 51°19.758 2°48.555 17.341 4.508923 34.729009 1.611236
2008-07-15 09:19:39 51°19.762 2°48.538 17.3397 4.509027 34.731281 1.611236
2008-07-15 09:19:45 51°19.767 2°48.516 17.339 4.509235 34.73376 1.611236
2008-07-15 09:19:49 51°19.77 2°48.502 17.3393 4.509235 34.73376 1.611236
2008-07-15 09:19:54 51°19.773 2°48.484 17.342 4.509235 34.735136 1.611236
2008-07-15 09:19:59 51°19.777 2°48.466 17.3377 4.508612 34.730449 1.611236
2008-07-15 09:20:05 51°19.782 2°48.444 17.3354 4.508508 34.730928 1.64606
2008-07-15 09:20:10 51°19.786 2°48.426 17.3354 4.508508 34.730928 1.611236
2008-07-15 09:20:14 51°19.789 2°48.412 17.3364 4.508612 34.732512 1.611236
2008-07-15 09:20:19 51°19.793 2°48.394 17.339 4.508612 34.732512 1.611236
2008-07-15 09:20:24 51°19.797 2°48.375 17.3356 4.508923 34.7352 1.611236
2008-07-15 09:20:30 51°19.801 2°48.354 17.3421 4.509442 34.73968 1.64606
2008-07-15 09:20:35 51°19.805 2°48.336 17.3386 4.508923 34.736576 1.64606
2008-07-15 09:20:39 51°19.808 2°48.322 17.3333 4.508923 34.737953 1.611236
2008-07-15 09:20:45 51°19.813 2°48.301 17.3368 4.508923 34.737953 1.611236
2008-07-15 09:20:50 51°19.817 2°48.283 17.3348 4.508923 34.737953 1.611236
2008-07-15 09:20:54 51°19.82 2°48.268 17.3386 4.509546 34.743329 1.64606
2008-07-15 09:20:59 51°19.824 2°48.251 17.3375 4.509754 34.745121 1.611236
2008-07-15 09:21:04 51°19.828 2°48.233 17.3397 4.509858 34.745329 1.611236
2008-07-15 09:21:10 51°19.833 2°48.212 17.3419 4.510169 34.748017 1.611236
2008-07-15 09:21:15 51°19.837 2°48.194 17.3399 4.510065 34.748498 1.611236
2008-07-15 09:21:19 51°19.84 2°48.18 17.3416 4.510065 34.748498 1.611236
2008-07-15 09:21:24 51°19.844 2°48.162 17.3404 4.510481 34.752082 1.576412
2008-07-15 09:21:30 51°19.848 2°48.14 17.342 4.510585 34.752979 1.541588
2008-07-15 09:21:35 51°19.852 2°48.122 17.3392 4.510688 34.753186 1.541588
2008-07-15 09:21:39 51°19.855 2°48.108 17.3398 4.510896 34.753602 1.47194
2008-07-15 09:21:45 51°19.86 2°48.086 17.3437 4.511104 34.754705 1.47194
2008-07-15 09:21:50 51°19.863 2°48.068 17.3412 4.511104 34.754705 1.47194
2008-07-15 09:21:54 51°19.866 2°48.054 17.3421 4.511311 34.755809 1.437116
2008-07-15 09:21:59 51°19.87 2°48.036 17.3464 4.511415 34.756705 1.437116
2008-07-15 09:22:05 51°19.875 2°48.014 17.3469 4.510585 34.749537 1.402292
2008-07-15 09:22:10 51°19.879 2°47.997 17.3448 4.511623 34.759186 1.367467
2008-07-15 09:22:14 51°19.882 2°47.983 17.3463 4.51183 34.760289 1.332643
2008-07-15 09:22:19 51°19.886 2°47.965 17.3448 4.51183 34.760289 1.332643
2008-07-15 09:22:25 51°19.891 2°47.944 17.3441 4.51183 34.759601 1.297819
2008-07-15 09:22:30 51°19.895 2°47.927 17.3439 4.512142 34.762289 1.297819
2008-07-15 09:22:35 51°19.899 2°47.909 17.3448 4.512246 34.761808 1.262995
2008-07-15 09:22:39 51°19.902 2°47.895 17.345 4.512453 34.762912 1.262995
2008-07-15 09:22:45 51°19.907 2°47.874 17.3459 4.512661 34.764704 1.228171
2008-07-15 09:22:50 51°19.911 2°47.856 17.3473 4.512661 34.764704 1.228171
2008-07-15 09:22:54 51°19.914 2°47.842 17.3431 4.512869 34.766496 1.193347
2008-07-15 09:22:59 51°19.917 2°47.824 17.3436 4.512972 34.767392 1.158523
2008-07-15 09:23:05 51°19.923 2°47.802 17.3454 4.513076 34.768288 1.123699
2008-07-15 09:23:10 51°19.926 2°47.785 17.3444 4.513284 34.77008 1.088875
2008-07-15 09:23:15 51°19.931 2°47.767 17.3421 4.513388 34.770976 1.088875
2008-07-15 09:23:19 51°19.934 2°47.753 17.3415 4.513388 34.770976 1.088875
2008-07-15 09:23:24 51°19.938 2°47.736 17.3408 4.513595 34.77208 1.019227
2008-07-15 09:23:30 51°19.943 2°47.714 17.3383 4.513699 34.772976 1.019227
2008-07-15 09:23:35 51°19.947 2°47.697 17.339 4.513803 34.773872 0.949579
2008-07-15 09:23:39 51°19.95 2°47.683 17.3389 4.513907 34.775456 0.914755
2008-07-15 09:23:45 51°19.955 2°47.662 17.3347 4.514011 34.777041 0.879931
2008-07-15 09:23:50 51°19.959 2°47.644 17.3362 4.514011 34.777041 0.879931
2008-07-15 09:23:55 51°19.963 2°47.626 17.3333 4.514011 34.77773 0.810283
2008-07-15 09:23:59 51°19.966 2°47.612 17.3314 4.514115 34.779315 0.775459
2008-07-15 09:24:05 51°19.97 2°47.591 17.332 4.514115 34.780693 0.775459
2008-07-15 09:24:10 51°19.973 2°47.573 17.3278 4.514115 34.781382 0.740634
2008-07-15 09:24:14 51°19.976 2°47.558 17.3304 4.514115 34.78276 0.70581
2008-07-15 09:24:19 51°19.979 2°47.54 17.3251 4.514115 34.78276 0.70581
2008-07-15 09:24:25 51°19.983 2°47.519 17.3241 4.514115 34.784138 0.636162
2008-07-15 09:24:30 51°19.986 2°47.501 17.3242 4.514115 34.785517 0.601338
2008-07-15 09:24:35 51°19.989 2°47.484 17.3236 4.514011 34.78531 0.601338
2008-07-15 09:24:40 51°19.992 2°47.466 17.3178 4.514011 34.786688 0.53169
2008-07-15 09:24:45 51°19.995 2°47.448 17.3161 4.513907 34.78717 0.496866
2008-07-15 09:24:50 51°19.997 2°47.43 17.3148 4.513907 34.78717 0.496866
2008-07-15 09:24:54 51°19.998 2°47.416 17.3124 4.513907 34.789238 0.462042
2008-07-15 09:24:59 51°20 2°47.398 17.3067 4.513803 34.789721 0.427218
2008-07-15 09:25:05 51°20.002 2°47.377 17.3075 4.513803 34.79041 0.392394
2008-07-15 09:25:10 51°20.003 2°47.359 17.3071 4.5137 34.791582 0.392394
2008-07-15 09:25:15 51°20.004 2°47.341 17.3014 4.513596 34.792754 0.322746
2008-07-15 09:25:19 51°20.004 2°47.327 17.299 4.513596 34.792754 0.322746
2008-07-15 09:25:24 51°20.005 2°47.309 17.2986 4.513492 34.793927 0.322746
2008-07-15 09:25:30 51°20.007 2°47.287 17.297 4.513284 34.795582 0.287922
2008-07-15 09:25:35 51°20.008 2°47.269 17.291 4.513181 34.796755 0.287922
2008-07-15 09:25:39 51°20.009 2°47.254 17.2894 4.512973 34.797031 0.218274
2008-07-15 09:25:45 51°20.011 2°47.232 17.2888 4.512869 34.798204 0.253098
2008-07-15 09:25:50 51°20.012 2°47.214 17.2861 4.512869 34.798204 0.253098
2008-07-15 09:25:54 51°20.013 2°47.2 17.2834 4.512662 34.79848 0.218274
2008-07-15 09:25:59 51°20.015 2°47.181 17.2823 4.512454 34.798756 0.18345
2008-07-15 09:26:05 51°20.017 2°47.159 17.2769 4.51235 34.799929 0.18345
2008-07-15 09:26:09 51°20.019 2°47.145 17.2772 4.512143 34.800896 0.18345
2008-07-15 09:26:15 51°20.02 2°47.123 17.2729 4.511935 34.801173 0.148626
2008-07-15 09:26:19 51°20.022 2°47.108 17.2737 4.511935 34.801173 0.148626
2008-07-15 09:26:25 51°20.024 2°47.087 17.2704 4.511727 34.80214 0.18345
2008-07-15 09:26:30 51°20.025 2°47.068 17.2686 4.51152 34.803107 0.148626
2008-07-15 09:26:34 51°20.026 2°47.054 17.2642 4.511312 34.803384 0.148626
2008-07-15 09:26:39 51°20.028 2°47.035 17.2601 4.511105 34.805042 0.113802
2008-07-15 09:26:45 51°20.03 2°47.013 17.2619 4.510897 34.805319 0.148626
2008-07-15 09:26:50 51°20.032 2°46.995 17.262 4.510897 34.805319 0.148626
2008-07-15 09:26:54 51°20.034 2°46.98 17.2577 4.510689 34.804906 0.113802
2008-07-15 09:26:59 51°20.035 2°46.962 17.2572 4.510482 34.805183 0.113802
2008-07-15 09:27:05 51°20.037 2°46.939 17.2602 4.510378 34.807049 0.113802
2008-07-15 09:27:10 51°20.039 2°46.921 17.2542 4.510066 34.806429 0.113802
2008-07-15 09:27:14 51°20.04 2°46.906 17.256 4.509859 34.806706 0.113802
2008-07-15 09:27:19 51°20.042 2°46.888 17.2518 4.509859 34.806706 0.113802
2008-07-15 09:27:25 51°20.045 2°46.866 17.2485 4.509651 34.806984 0.078977
2008-07-15 09:27:30 51°20.046 2°46.847 17.2464 4.509547 34.807468 0.078977
2008-07-15 09:27:35 51°20.048 2°46.829 17.2453 4.50934 34.807055 0.078977
2008-07-15 09:27:39 51°20.05 2°46.814 17.2452 4.509236 34.806848 0.078977
2008-07-15 09:27:45 51°20.052 2°46.792 17.2411 4.509028 34.807126 0.078977
2008-07-15 09:27:50 51°20.054 2°46.774 17.2382 4.509028 34.807126 0.078977
2008-07-15 09:27:54 51°20.055 2°46.759 17.2357 4.508925 34.80761 0.044153
2008-07-15 09:27:59 51°20.057 2°46.741 17.2351 4.508613 34.807681 0.044153
2008-07-15 09:28:05 51°20.059 2°46.719 17.2345 4.508406 34.808651 0.044153
2008-07-15 09:28:09 51°20.06 2°46.705 17.231 4.508198 34.808237 0.044153
2008-07-15 09:28:15 51°20.062 2°46.682 17.2328 4.50799 34.808515 0.044153
2008-07-15 09:28:19 51°20.064 2°46.668 17.2289 4.50799 34.808515 0.044153
2008-07-15 09:28:25 51°20.066 2°46.646 17.2253 4.507679 34.807895 0.044153
2008-07-15 09:28:30 51°20.068 2°46.628 17.2256 4.507471 34.808173 0.044153
2008-07-15 09:28:35 51°20.071 2°46.611 17.2221 4.507264 34.808452 0.009329
2008-07-15 09:28:39 51°20.072 2°46.596 17.2234 4.507056 34.808038 0.009329
2008-07-15 09:28:45 51°20.075 2°46.575 17.2246 4.506848 34.807625 0.009329
2008-07-15 09:28:49 51°20.076 2°46.561 17.2221 4.506848 34.807625 0.009329
2008-07-15 09:28:54 51°20.078 2°46.543 17.2223 4.506745 34.808802 -0.025495
2008-07-15 09:28:59 51°20.079 2°46.525 17.2194 4.506537 34.80908 0.009329
2008-07-15 09:29:05 51°20.082 2°46.503 17.221 4.506329 34.809358 0.009329
2008-07-15 09:29:10 51°20.083 2°46.485 17.2236 4.492417 34.69038 0.009329
2008-07-15 09:29:14 51°20.084 2°46.47 17.2188 4.505914 34.80784 -0.025495
2008-07-15 09:29:19 51°20.086 2°46.452 17.218 4.505914 34.80784 -0.025495
2008-07-15 09:29:25 51°20.089 2°46.43 17.2158 4.50581 34.807633 -0.025495
2008-07-15 09:29:30 51°20.091 2°46.412 17.2173 4.505706 34.807427 -0.025495
2008-07-15 09:29:35 51°20.092 2°46.394 17.2162 4.505499 34.806322 -0.025495
2008-07-15 09:29:39 51°20.094 2°46.38 17.2177 4.505395 34.805423 -0.025495
2008-07-15 09:29:45 51°20.095 2°46.359 17.2156 4.505291 34.805216 -0.025495
2008-07-15 09:29:50 51°20.097 2°46.341 17.2155 4.505291 34.805216 -0.025495
2008-07-15 09:29:54 51°20.099 2°46.327 17.2113 4.505187 34.80501 -0.060319
2008-07-15 09:29:59 51°20.1 2°46.309 17.215 4.505084 34.805495 -0.060319
2008-07-15 09:30:04 51°20.102 2°46.291 17.2112 4.50498 34.805288 -0.060319
2008-07-15 09:30:09 51°20.103 2°46.273 17.2107 4.504876 34.80439 -0.060319
2008-07-15 09:30:15 51°20.105 2°46.252 17.2123 4.504772 34.804875 -0.060319
2008-07-15 09:30:19 51°20.107 2°46.238 17.2101 4.504772 34.804875 -0.060319
2008-07-15 09:30:25 51°20.109 2°46.217 17.2098 4.504668 34.804668 -0.060319
2008-07-15 09:30:30 51°20.11 2°46.199 17.2092 4.504461 34.804255 -0.060319
2008-07-15 09:30:35 51°20.112 2°46.181 17.2075 4.504357 34.804048 -0.060319
2008-07-15 09:30:39 51°20.113 2°46.166 17.2083 4.504253 34.803841 -0.060319
2008-07-15 09:30:45 51°20.115 2°46.145 17.2079 4.504149 34.803635 -0.060319
2008-07-15 09:30:49 51°20.117 2°46.13 17.2066 4.504149 34.803635 -0.060319
2008-07-15 09:30:54 51°20.119 2°46.112 17.2042 4.504045 34.802736 -0.060319
2008-07-15 09:30:59 51°20.121 2°46.094 17.2039 4.504045 34.803428 -0.060319
2008-07-15 09:31:05 51°20.123 2°46.071 17.2088 4.503942 34.803221 -0.060319
2008-07-15 09:31:10 51°20.124 2°46.053 17.2039 4.503838 34.803014 -0.060319
2008-07-15 09:31:14 51°20.126 2°46.038 17.2023 4.503734 34.802808 -0.095143
2008-07-15 09:31:19 51°20.128 2°46.019 17.2002 4.503734 34.802808 -0.095143
2008-07-15 09:31:25 51°20.13 2°45.997 17.2032 4.50363 34.801909 -0.060319
2008-07-15 09:31:30 51°20.132 2°45.979 17.1993 4.503526 34.802394 -0.095143
2008-07-15 09:31:34 51°20.134 2°45.964 17.1981 4.503423 34.801495 -0.060319
2008-07-15 09:31:39 51°20.136 2°45.945 17.1983 4.503423 34.801495 -0.095143
2008-07-15 09:31:45 51°20.138 2°45.923 17.1989 4.503319 34.801981 -0.060319
2008-07-15 09:31:50 51°20.14 2°45.905 17.199 4.503319 34.801981 -0.060319
2008-07-15 09:31:54 51°20.142 2°45.891 17.1955 4.503215 34.801774 -0.060319
2008-07-15 09:31:59 51°20.144 2°45.872 17.1979 4.503111 34.802259 -0.060319
2008-07-15 09:32:04 51°20.145 2°45.854 17.1936 4.502904 34.801154 -0.095143
2008-07-15 09:32:10 51°20.148 2°45.832 17.1961 4.502904 34.801846 -0.095143
2008-07-15 09:32:15 51°20.15 2°45.813 17.1928 4.5028 34.801639 -0.060319
2008-07-15 09:32:19 51°20.151 2°45.799 17.1906 4.5028 34.801639 -0.060319
2008-07-15 09:32:25 51°20.154 2°45.777 17.1893 4.502696 34.801432 -0.060319
2008-07-15 09:32:30 51°20.156 2°45.758 17.1916 4.502592 34.801918 -0.060319
2008-07-15 09:32:35 51°20.157 2°45.739 17.1891 4.502488 34.801711 -0.060319
2008-07-15 09:32:39 51°20.159 2°45.725 17.1895 4.502384 34.801504 -0.060319
2008-07-15 09:32:45 51°20.161 2°45.702 17.1869 4.502281 34.801298 -0.060319
2008-07-15 09:32:50 51°20.163 2°45.684 17.1891 4.502281 34.801298 -0.060319
2008-07-15 09:32:55 51°20.166 2°45.665 17.1893 4.502177 34.801783 -0.060319
2008-07-15 09:32:59 51°20.168 2°45.651 17.1825 4.502073 34.802269 -0.060319
2008-07-15 09:33:05 51°20.17 2°45.629 17.1837 4.501969 34.802062 -0.060319
2008-07-15 09:33:10 51°20.172 2°45.61 17.1835 4.501969 34.802755 -0.060319
2008-07-15 09:33:14 51°20.174 2°45.596 17.1851 4.501969 34.803447 -0.060319
2008-07-15 09:33:19 51°20.176 2°45.577 17.1874 4.501969 34.803447 -0.060319
2008-07-15 09:33:25 51°20.178 2°45.555 17.1835 4.501865 34.80324 -0.025495
2008-07-15 09:33:30 51°20.181 2°45.537 17.1825 4.501762 34.803034 -0.025495
2008-07-15 09:33:34 51°20.182 2°45.522 17.1799 4.501658 34.803519 -0.025495
2008-07-15 09:33:39 51°20.184 2°45.503 17.1801 4.501554 34.804005 0.009329
2008-07-15 09:33:45 51°20.187 2°45.48 17.1801 4.501554 34.804005 -0.025495
2008-07-15 09:33:50 51°20.189 2°45.461 17.178 4.501554 34.804005 -0.025495
2008-07-15 09:33:54 51°20.191 2°45.446 17.1784 4.501554 34.804005 -0.025495
2008-07-15 09:33:59 51°20.193 2°45.427 17.1764 4.50145 34.803106 0.009329
2008-07-15 09:34:05 51°20.196 2°45.404 17.1782 4.50145 34.804491 0.009329
2008-07-15 09:34:10 51°20.198 2°45.385 17.1809 4.50145 34.805184 0.009329
2008-07-15 09:34:15 51°20.2 2°45.366 17.1745 4.50145 34.806569 0.044153
2008-07-15 09:34:19 51°20.201 2°45.351 17.1788 4.50145 34.806569 0.044153
2008-07-15 09:34:24 51°20.203 2°45.332 17.1772 4.501346 34.806362 0.009329
2008-07-15 09:34:30 51°20.205 2°45.309 17.1741 4.501346 34.807055 0.044153
2008-07-15 09:34:34 51°20.205 2°45.294 17.1713 4.501346 34.807055 0.078977
2008-07-15 09:34:39 51°20.207 2°45.275 17.1717 4.501347 34.807748 0.044153
2008-07-15 09:34:45 51°20.208 2°45.252 17.1711 4.50145 34.80934 0.078977
2008-07-15 09:34:50 51°20.209 2°45.233 17.1746 4.50145 34.80934 0.078977
2008-07-15 09:34:55 51°20.21 2°45.213 17.1719 4.50145 34.810033 0.078977
2008-07-15 09:34:59 51°20.211 2°45.198 17.1709 4.50145 34.810725 0.113802
2008-07-15 09:35:04 51°20.212 2°45.179 17.1737 4.50145 34.812111 0.113802
2008-07-15 09:35:10 51°20.214 2°45.155 17.1696 4.50145 34.813497 0.148626
2008-07-15 09:35:15 51°20.215 2°45.136 17.1705 4.50145 34.813497 0.113802
2008-07-15 09:35:19 51°20.216 2°45.121 17.1707 4.50145 34.813497 0.113802
2008-07-15 09:35:25 51°20.218 2°45.098 17.1703 4.501554 34.814397 0.148626
2008-07-15 09:35:30 51°20.22 2°45.078 17.1694 4.501658 34.815989 0.148626
2008-07-15 09:35:34 51°20.221 2°45.063 17.1706 4.501658 34.815989 0.148626
2008-07-15 09:35:39 51°20.223 2°45.044 17.1708 4.501762 34.816889 0.148626
2008-07-15 09:35:45 51°20.224 2°45.021 17.1688 4.501866 34.818481 0.18345
2008-07-15 09:35:49 51°20.226 2°45.006 17.1689 4.501866 34.818481 0.18345
2008-07-15 09:35:54 51°20.227 2°44.987 17.1652 4.501866 34.818481 0.18345
2008-07-15 09:35:59 51°20.229 2°44.967 17.1663 4.50197 34.819381 0.18345
2008-07-15 09:36:05 51°20.231 2°44.944 17.1641 4.502073 34.820973 0.218274
2008-07-15 09:36:10 51°20.232 2°44.925 17.1664 4.502177 34.821873 0.218274
2008-07-15 09:36:15 51°20.233 2°44.906 17.1679 4.502177 34.821873 0.218274
2008-07-15 09:36:19 51°20.234 2°44.89 17.1638 4.502177 34.821873 0.218274
2008-07-15 09:36:25 51°20.236 2°44.867 17.1651 4.502281 34.823466 0.218274
2008-07-15 09:36:30 51°20.238 2°44.848 17.1653 4.502177 34.823953 0.218274
2008-07-15 09:36:34 51°20.239 2°44.833 17.165 4.502177 34.823953 0.218274
2008-07-15 09:36:39 51°20.24 2°44.814 17.1652 4.502177 34.824646 0.218274
2008-07-15 09:36:45 51°20.242 2°44.791 17.1645 4.502177 34.825339 0.218274
2008-07-15 09:36:50 51°20.244 2°44.772 17.1652 4.502177 34.825339 0.218274
2008-07-15 09:36:55 51°20.245 2°44.753 17.1657 4.502073 34.82444 0.218274
2008-07-15 09:36:59 51°20.246 2°44.738 17.1653 4.502073 34.825133 0.218274
2008-07-15 09:37:04 51°20.248 2°44.719 17.1656 4.502073 34.825133 0.18345
2008-07-15 09:37:10 51°20.25 2°44.696 17.1647 4.502073 34.825826 0.218274
2008-07-15 09:37:15 51°20.251 2°44.677 17.1664 4.50197 34.824233 0.218274
2008-07-15 09:37:19 51°20.253 2°44.661 17.1664 4.50197 34.824233 0.218274
2008-07-15 09:37:25 51°20.255 2°44.639 17.1679 4.502073 34.825133 0.18345
2008-07-15 09:37:30 51°20.256 2°44.619 17.165 4.502073 34.825133 0.18345
2008-07-15 09:37:35 51°20.258 2°44.6 17.1662 4.502073 34.825133 0.18345
2008-07-15 09:37:39 51°20.259 2°44.585 17.1688 4.502073 34.825133 0.218274
2008-07-15 09:37:45 51°20.261 2°44.562 17.1656 4.502073 34.825133 0.218274
2008-07-15 09:37:49 51°20.262 2°44.546 17.1671 4.502073 34.825133 0.218274
2008-07-15 09:37:54 51°20.264 2°44.527 17.1656 4.500724 34.813438 0.218274
2008-07-15 09:37:59 51°20.266 2°44.508 17.1672 4.502073 34.82444 0.218274
2008-07-15 09:38:05 51°20.268 2°44.485 17.165 4.502073 34.82444 0.218274
2008-07-15 09:38:10 51°20.27 2°44.466 17.1662 4.501658 34.820148 0.218274
2008-07-15 09:38:15 51°20.272 2°44.447 17.1633 4.501243 34.817243 0.218274
2008-07-15 09:38:19 51°20.273 2°44.432 17.1655 4.501243 34.817243 0.218274
2008-07-15 09:38:25 51°20.275 2°44.409 17.1626 4.502073 34.82444 0.253098
2008-07-15 09:38:30 51°20.277 2°44.39 17.1644 4.502177 34.825339 0.253098
2008-07-15 09:38:34 51°20.278 2°44.375 17.1623 4.501347 34.818142 0.287922
2008-07-15 09:38:39 51°20.28 2°44.356 17.1625 4.502177 34.826033 0.287922
2008-07-15 09:38:45 51°20.283 2°44.334 17.1679 4.501347 34.818835 0.287922
2008-07-15 09:38:50 51°20.284 2°44.315 17.1626 4.501347 34.818835 0.287922
2008-07-15 09:38:55 51°20.286 2°44.296 17.1592 4.502177 34.826726 0.322746
2008-07-15 09:38:59 51°20.288 2°44.281 17.1606 4.502177 34.826726 0.322746
2008-07-15 09:39:04 51°20.289 2°44.262 17.1593 4.502177 34.826726 0.322746
2008-07-15 09:39:10 51°20.291 2°44.24 17.1589 4.502177 34.826726 0.322746
2008-07-15 09:39:15 51°20.293 2°44.22 17.1576 4.501347 34.819529 0.322746
2008-07-15 09:39:19 51°20.295 2°44.205 17.1559 4.501347 34.819529 0.322746
2008-07-15 09:39:25 51°20.297 2°44.182 17.1561 4.502177 34.826726 0.35757
2008-07-15 09:39:30 51°20.298 2°44.163 17.1559 4.50197 34.826314 0.322746
2008-07-15 09:39:34 51°20.3 2°44.148 17.1514 4.501866 34.826801 0.35757
2008-07-15 09:39:39 51°20.302 2°44.129 17.1525 4.502074 34.829294 0.35757
2008-07-15 09:39:45 51°20.304 2°44.107 17.1529 4.50197 34.829781 0.35757
2008-07-15 09:39:49 51°20.305 2°44.091 17.1523 4.50197 34.829781 0.35757
2008-07-15 09:39:55 51°20.307 2°44.069 17.1526 4.501866 34.830268 0.322746
2008-07-15 09:39:59 51°20.308 2°44.053 17.1522 4.501866 34.830962 0.35757
2008-07-15 09:40:05 51°20.31 2°44.031 17.1513 4.501762 34.830756 0.35757
2008-07-15 09:40:10 51°20.312 2°44.011 17.1453 4.501762 34.83145 0.392394
2008-07-15 09:40:14 51°20.313 2°43.996 17.1445 4.501658 34.831243 0.392394
2008-07-15 09:40:20 51°20.315 2°43.973 17.1438 4.501658 34.831243 0.392394
2008-07-15 09:40:25 51°20.316 2°43.954 17.143 4.501658 34.831937 0.427218
2008-07-15 09:40:30 51°20.318 2°43.935 17.1431 4.501658 34.831937 0.392394
2008-07-15 09:40:34 51°20.319 2°43.92 17.138 4.501658 34.832631 0.392394
2008-07-15 09:40:39 51°20.32 2°43.9 17.1344 4.501555 34.833118 0.427218
2008-07-15 09:40:45 51°20.322 2°43.877 17.1348 4.501451 34.8343 0.392394
2008-07-15 09:40:50 51°20.323 2°43.858 17.131 4.501451 34.8343 0.392394
2008-07-15 09:40:54 51°20.325 2°43.843 17.1323 4.501347 34.834788 0.392394
2008-07-15 09:40:59 51°20.326 2°43.824 17.1272 4.501347 34.835482 0.427218
2008-07-15 09:41:05 51°20.328 2°43.802 17.122 4.500309 34.827869 0.392394
2008-07-15 09:41:10 51°20.33 2°43.783 17.1191 4.499582 34.823649 0.392394
2008-07-15 09:41:15 51°20.331 2°43.764 17.1174 4.499167 34.822824 0.392394
2008-07-15 09:41:19 51°20.333 2°43.749 17.12 4.499167 34.822824 0.392394
2008-07-15 09:41:25 51°20.335 2°43.726 17.1187 4.500932 34.84021 0.392394
2008-07-15 09:41:30 51°20.336 2°43.708 17.114 4.500828 34.841393 0.427218
2008-07-15 09:41:34 51°20.337 2°43.692 17.1136 4.50062 34.842369 0.392394
2008-07-15 09:41:39 51°20.339 2°43.674 17.1155 4.500517 34.843552 0.392394
2008-07-15 09:41:45 51°20.341 2°43.651 17.1136 4.500413 34.846124 0.392394
2008-07-15 09:41:49 51°20.342 2°43.636 17.1093 4.500413 34.846124 0.392394
2008-07-15 09:41:55 51°20.344 2°43.614 17.1118 4.500205 34.846407 0.392394
2008-07-15 09:41:59 51°20.345 2°43.599 17.1161 4.500101 34.846201 0.392394
2008-07-15 09:42:05 51°20.346 2°43.576 17.1118 4.499998 34.84808 0.35757
2008-07-15 09:42:10 51°20.348 2°43.557 17.1111 4.499894 34.847874 0.35757
2008-07-15 09:42:14 51°20.35 2°43.543 17.1108 4.49979 34.847668 0.35757
2008-07-15 09:42:19 51°20.351 2°43.524 17.1099 4.49979 34.847668 0.35757
2008-07-15 09:42:25 51°20.353 2°43.502 17.1075 4.49979 34.849057 0.35757
2008-07-15 09:42:30 51°20.355 2°43.484 17.1062 4.49979 34.849752 0.35757
2008-07-15 09:42:34 51°20.357 2°43.469 17.107 4.49979 34.849057 0.35757
2008-07-15 09:42:39 51°20.358 2°43.45 17.106 4.49979 34.850447 0.322746
2008-07-15 09:42:45 51°20.36 2°43.428 17.1053 4.49979 34.850447 0.35757
2008-07-15 09:42:50 51°20.362 2°43.409 17.0999 4.49979 34.850447 0.35757
2008-07-15 09:42:54 51°20.363 2°43.394 17.1037 4.499686 34.850241 0.322746
2008-07-15 09:42:59 51°20.365 2°43.375 17.1001 4.499686 34.850936 0.35757
2008-07-15 09:43:05 51°20.367 2°43.352 17.101 4.499686 34.852326 0.35757
2008-07-15 09:43:10 51°20.368 2°43.334 17.0986 4.495949 34.820592 0.322746
2008-07-15 09:43:15 51°20.37 2°43.315 17.0965 4.497298 34.833692 0.322746
2008-07-15 09:43:19 51°20.371 2°43.3 17.0971 4.497298 34.833692 0.322746
2008-07-15 09:43:25 51°20.373 2°43.277 17.0947 4.499583 34.855596 0.322746
2008-07-15 09:43:30 51°20.375 2°43.258 17.0967 4.499479 34.85539 0.322746
2008-07-15 09:43:34 51°20.376 2°43.243 17.0929 4.499479 34.856086 0.322746
2008-07-15 09:43:39 51°20.378 2°43.224 17.0946 4.499479 34.857476 0.322746
2008-07-15 09:43:45 51°20.379 2°43.201 17.0911 4.499479 34.858867 0.322746
2008-07-15 09:43:50 51°20.38 2°43.182 17.0943 4.499479 34.858867 0.322746
2008-07-15 09:43:55 51°20.382 2°43.163 17.0911 4.499479 34.858867 0.322746
2008-07-15 09:43:59 51°20.383 2°43.148 17.0916 4.499479 34.860953 0.322746
2008-07-15 09:44:05 51°20.385 2°43.125 17.0921 4.499479 34.861648 0.322746
2008-07-15 09:44:10 51°20.386 2°43.106 17.0875 4.499479 34.863039 0.322746
2008-07-15 09:44:15 51°20.387 2°43.087 17.0926 4.499479 34.863039 0.322746
2008-07-15 09:44:19 51°20.388 2°43.072 17.088 4.499479 34.863039 0.322746
2008-07-15 09:44:25 51°20.389 2°43.049 17.0895 4.499479 34.863735 0.322746
2008-07-15 09:44:29 51°20.39 2°43.034 17.0898 4.499583 34.865332 0.322746
2008-07-15 09:44:34 51°20.392 2°43.015 17.0875 4.499583 34.866027 0.322746
2008-07-15 09:44:39 51°20.393 2°42.997 17.0895 4.499687 34.867624 0.35757
2008-07-15 09:44:45 51°20.395 2°42.974 17.0909 4.49979 34.869221 0.322746
2008-07-15 09:44:50 51°20.396 2°42.956 17.0929 4.49979 34.869221 0.322746
2008-07-15 09:44:54 51°20.397 2°42.941 17.0926 4.499894 34.870123 0.322746
2008-07-15 09:44:59 51°20.399 2°42.922 17.0912 4.499998 34.871024 0.35757
2008-07-15 09:45:05 51°20.4 2°42.9 17.0944 4.500102 34.871925 0.35757
2008-07-15 09:45:10 51°20.401 2°42.881 17.0953 4.500206 34.873522 0.35757
2008-07-15 09:45:15 51°20.403 2°42.862 17.095 4.50031 34.873728 0.35757
2008-07-15 09:45:19 51°20.404 2°42.847 17.0946 4.50031 34.873728 0.35757
2008-07-15 09:45:25 51°20.405 2°42.825 17.097 4.500517 34.874835 0.35757
2008-07-15 09:45:30 51°20.406 2°42.806 17.0958 4.500725 34.875941 0.35757
2008-07-15 09:45:34 51°20.407 2°42.791 17.0969 4.500829 34.876843 0.35757
2008-07-15 09:45:39 51°20.408 2°42.772 17.0951 4.500932 34.877048 0.35757
2008-07-15 09:45:44 51°20.408 2°42.753 17.0967 4.501036 34.877253 0.35757
2008-07-15 09:45:50 51°20.409 2°42.731 17.0973 4.501036 34.877253 0.35757
2008-07-15 09:45:55 51°20.41 2°42.711 17.0985 4.50114 34.877459 0.322746
2008-07-15 09:45:59 51°20.411 2°42.696 17.0991 4.501348 34.878565 0.322746
2008-07-15 09:46:05 51°20.412 2°42.674 17.0983 4.501452 34.879467 0.322746
2008-07-15 09:46:10 51°20.412 2°42.654 17.1004 4.501555 34.879672 0.322746
2008-07-15 09:46:15 51°20.413 2°42.635 17.099 4.501555 34.879672 0.322746
2008-07-15 09:46:19 51°20.414 2°42.62 17.097 4.501555 34.879672 0.322746
2008-07-15 09:46:25 51°20.415 2°42.597 17.0983 4.501555 34.878976 0.322746
2008-07-15 09:46:29 51°20.416 2°42.582 17.1002 4.501659 34.879877 0.322746
2008-07-15 09:46:35 51°20.417 2°42.559 17.1008 4.501763 34.880083 0.322746
2008-07-15 09:46:39 51°20.418 2°42.543 17.0995 4.501867 34.880288 0.35757
2008-07-15 09:46:45 51°20.418 2°42.52 17.0981 4.501867 34.880288 0.322746
2008-07-15 09:46:50 51°20.42 2°42.501 17.0988 4.501867 34.880288 0.322746
2008-07-15 09:46:54 51°20.42 2°42.486 17.1002 4.501867 34.880288 0.322746
2008-07-15 09:46:59 51°20.421 2°42.467 17.0999 4.501867 34.880288 0.322746
2008-07-15 09:47:05 51°20.422 2°42.444 17.0985 4.501971 34.880493 0.322746
2008-07-15 09:47:10 51°20.423 2°42.425 17.0996 4.501971 34.880493 0.322746
2008-07-15 09:47:15 51°20.424 2°42.406 17.1012 4.501971 34.881189 0.322746
2008-07-15 09:47:19 51°20.424 2°42.391 17.1004 4.501971 34.881189 0.322746
2008-07-15 09:47:25 51°20.426 2°42.368 17.1039 4.501971 34.881189 0.35757
2008-07-15 09:47:30 51°20.427 2°42.349 17.1006 4.501971 34.880493 0.322746
2008-07-15 09:47:34 51°20.428 2°42.334 17.1034 4.501971 34.880493 0.35757
2008-07-15 09:47:39 51°20.429 2°42.316 17.0999 4.501971 34.880493 0.35757
2008-07-15 09:47:44 51°20.43 2°42.297 17.1003 4.502074 34.880699 0.392394
2008-07-15 09:47:50 51°20.431 2°42.275 17.0993 4.502074 34.880699 0.392394
2008-07-15 09:47:55 51°20.431 2°42.256 17.0982 4.502074 34.880699 0.35757
2008-07-15 09:47:59 51°20.432 2°42.241 17.1003 4.502074 34.879307 0.35757
2008-07-15 09:48:05 51°20.433 2°42.219 17.099 4.502074 34.879307 0.35757
2008-07-15 09:48:10 51°20.434 2°42.2 17.1003 4.502074 34.880003 0.392394
2008-07-15 09:48:15 51°20.435 2°42.182 17.1007 4.502074 34.880003 0.392394
2008-07-15 09:48:19 51°20.435 2°42.167 17.1008 4.502074 34.880003 0.392394
2008-07-15 09:48:25 51°20.436 2°42.145 17.0991 4.502074 34.880699 0.392394
2008-07-15 09:48:30 51°20.437 2°42.126 17.1007 4.501971 34.880493 0.392394
2008-07-15 09:48:35 51°20.438 2°42.108 17.1011 4.501971 34.880493 0.35757
2008-07-15 09:48:39 51°20.439 2°42.094 17.0993 4.501971 34.879798 0.392394
2008-07-15 09:48:44 51°20.44 2°42.076 17.0961 4.501971 34.879798 0.392394
2008-07-15 09:48:50 51°20.442 2°42.054 17.0983 4.501971 34.879798 0.392394
2008-07-15 09:48:55 51°20.442 2°42.036 17.0994 4.501971 34.879798 0.427218
2008-07-15 09:48:59 51°20.443 2°42.021 17.0977 4.501971 34.879798 0.392394
2008-07-15 09:49:05 51°20.445 2°41.999 17.0985 4.501971 34.879102 0.392394
2008-07-15 09:49:10 51°20.446 2°41.981 17.099 4.501971 34.879798 0.392394
2008-07-15 09:49:14 51°20.447 2°41.967 17.0964 4.501867 34.880288 0.392394
2008-07-15 09:49:19 51°20.449 2°41.948 17.0988 4.501867 34.880288 0.392394
2008-07-15 09:49:25 51°20.45 2°41.927 17.101 4.501763 34.880083 0.392394
2008-07-15 09:49:30 51°20.452 2°41.909 17.1017 4.501763 34.879387 0.392394
2008-07-15 09:49:34 51°20.453 2°41.894 17.0986 4.501763 34.879387 0.392394
2008-07-15 09:49:39 51°20.455 2°41.876 17.0983 4.501763 34.879387 0.392394
2008-07-15 09:49:45 51°20.457 2°41.854 17.0959 4.501763 34.880083 0.392394